FW6030 Weather Reports


time (UTC)temp
F
wind
direction
speed
knots
gust
knots
rain 1hr
in
rain 24hr
in
rain mn
in
humidity
%
barometer
mb
20260903195517 98 360 5.2 10.4 0.00 0.00 0.00 48 1012.5
20260903195417 99 360 5.2 10.4 0.00 0.00 0.00 47 1012.5
20260903195318 100 360 4.3 10.4 0.00 0.00 0.00 46 1012.5
20260903195219 100 360 3.5 10.4 0.00 0.00 0.00 46 1012.6
20260903195123 100 360 1.7 9.6 0.00 0.00 0.00 46 1012.5
20260903195023 100 360 1.7 9.6 0.00 0.00 0.00 46 1012.5
20260903194923 100 360 1.7 9.6 0.00 0.00 0.00 46 1012.4
20260903194822 100 360 1.7 9.6 0.00 0.00 0.00 47 1012.5
20260903194723 99 360 1.7 9.6 0.00 0.00 0.00 48 1012.5
20260903194623 99 360 1.7 9.6 0.00 0.00 0.00 48 1012.5
20260903194524 98 360 4.3 9.6 0.00 0.00 0.00 48 1012.6
20260903194428 99 360 4.3 9.6 0.00 0.00 0.00 47 1012.6
20260903194328 99 360 3.5 9.6 0.00 0.00 0.00 49 1012.5
20260903194228 98 360 2.6 11.3 0.00 0.00 0.00 48 1012.6
20260903194129 98 360 1.7 11.3 0.00 0.00 0.00 48 1012.6
20260903194030 98 360 1.7 11.3 0.00 0.00 0.00 48 1012.6
20260903193930 98 360 2.6 11.3 0.00 0.00 0.00 48 1012.6
20260903193831 97 360 3.5 11.3 0.00 0.00 0.00 48 1012.6
20260903193755 97 360 5.2 11.3 0.00 0.00 0.00 48 1012.7
20260903193654 97 360 6.1 11.3 0.00 0.00 0.00 48 1012.7
20260903193554 97 360 7.0 11.3 0.00 0.00 0.00 49 1012.7
20260903193433 98 360 6.1 11.3 0.00 0.00 0.00 47 1012.7
20260903193333 98 360 4.3 11.3 0.00 0.00 0.00 48 1012.7
20260903193233 99 360 2.6 11.3 0.00 0.00 0.00 48 1012.7
20260903193133 98 360 2.6 11.3 0.00 0.00 0.00 47 1012.8
20260903193033 98 360 2.6 11.3 0.00 0.00 0.00 48 1012.7
20260903192918 98 360 4.3 11.3 0.00 0.00 0.00 49 1012.7
20260903192819 98 360 4.3 11.3 0.00 0.00 0.00 49 1012.8
20260903192718 98 360 4.3 11.3 0.00 0.00 0.00 49 1012.8
20260903192620 97 360 5.2 11.3 0.00 0.00 0.00 49 1012.8
20260903192519 97 360 6.1 11.3 0.00 0.00 0.00 49 1012.9
20260903192440 97 360 5.2 11.3 0.00 0.00 0.00 50 1012.8
20260903192319 97 360 4.3 11.3 0.00 0.00 0.00 49 1012.8
20260903192240 97 360 3.5 9.6 0.00 0.00 0.00 49 1012.8
20260903192124 97 360 4.3 10.4 0.00 0.00 0.00 49 1012.8
20260903192024 97 360 3.5 13.0 0.00 0.00 0.00 50 1012.9
20260903191925 97 360 4.3 13.0 0.00 0.00 0.00 51 1012.9
20260903191826 97 114 4.3 13.0 0.00 0.00 0.00 51 1012.9
20260903191726 97 360 6.1 13.0 0.00 0.00 0.00 50 1013.0
20260903191626 97 360 6.1 14.8 0.00 0.00 0.00 49 1012.9
20260903191530 97 360 7.0 14.8 0.00 0.00 0.00 49 1013.0
20260903191431 97 360 7.8 14.8 0.00 0.00 0.00 50 1013.0
20260903191332 97 360 8.7 14.8 0.00 0.00 0.00 51 1013.0
20260903191232 97 360 8.7 14.8 0.00 0.00 0.00 51 1013.0
20260903191132 97 360 8.7 14.8 0.00 0.00 0.00 50 1013.0
20260903191053 97 360 9.6 14.8 0.00 0.00 0.00 51 1013.0
20260903190953 97 360 8.7 14.8 0.00 0.00 0.00 51 1013.1
20260903190852 97 360 7.0 14.8 0.00 0.00 0.00 50 1013.1
20260903190716 98 360 4.3 12.2 0.00 0.00 0.00 50 1013.2
20260903190637 98 360 5.2 13.0 0.00 0.00 0.00 50 1013.2
20260903190536 98 360 5.2 13.0 0.00 0.00 0.00 50 1013.2
20260903190435 98 360 4.3 13.0 0.00 0.00 0.00 50 1013.2
20260903190335 98 360 5.2 13.0 0.00 0.00 0.00 51 1013.2
20260903190237 97 360 6.1 13.0 0.00 0.00 0.00 52 1013.2
20260903190136 97 360 4.3 13.0 0.00 0.00 0.00 52 1013.2
20260903190035 97 360 2.6 13.0 0.00 0.00 0.00 51 1013.3
20260903185920 96 360 1.7 13.0 0.00 0.00 0.00 51 1013.2
20260903185822 96 360 3.5 13.0 0.00 0.00 0.00 52 1013.2
20260903185722 96 360 6.1 13.0 0.00 0.00 0.00 52 1013.3
20260903185622 96 360 7.8 13.0 0.00 0.00 0.00 52 1013.4
20260903185522 96 360 8.7 13.0 0.00 0.00 0.00 51 1013.4
20260903185422 96 360 7.8 13.0 0.00 0.00 0.00 52 1013.4
20260903185327 96 360 7.0 9.6 0.00 0.00 0.00 52 1013.4
20260903185227 96 360 4.3 9.6 0.00 0.00 0.00 51 1013.4
20260903185128 96 360 2.6 8.7 0.00 0.00 0.00 52 1013.4
20260903185027 96 360 2.6 8.7 0.00 0.00 0.00 51 1013.4
20260903184928 95 360 2.6 8.7 0.00 0.00 0.00 51 1013.5
20260903184828 95 360 2.6 8.7 0.00 0.00 0.00 52 1013.5
20260903184729 95 360 4.3 8.7 0.00 0.00 0.00 52 1013.5
20260903184649 95 360 5.2 12.2 0.00 0.00 0.00 51 1013.5
20260903184532 95 360 5.2 12.2 0.00 0.00 0.00 51 1013.6
20260903184432 96 360 4.3 12.2 0.00 0.00 0.00 50 1013.6
20260903184332 96 360 4.3 12.2 0.00 0.00 0.00 50 1013.7
20260903184233 96 360 3.5 12.2 0.00 0.00 0.00 50 1013.7
20260903184134 96 360 3.5 12.2 0.00 0.00 0.00 51 1013.7
20260903184034 96 360 5.2 12.2 0.00 0.00 0.00 51 1013.8
20260903183918 96 360 7.0 12.2 0.00 0.00 0.00 52 1013.7
20260903183818 95 360 7.8 13.9 0.00 0.00 0.00 51 1013.7
20260903183719 95 360 8.7 14.8 0.00 0.00 0.00 51 1013.7
20260903183619 95 360 8.7 14.8 0.00 0.00 0.00 51 1013.7
20260903183518 95 360 9.6 14.8 0.00 0.00 0.00 51 1013.7
20260903183439 95 360 8.7 14.8 0.00 0.00 0.00 50 1013.8
20260903183318 95 360 7.8 14.8 0.00 0.00 0.00 50 1013.7
20260903183219 95 360 7.8 14.8 0.00 0.00 0.00 51 1013.8
20260903183140 95 360 8.7 14.8 0.00 0.00 0.00 51 1013.8
20260903183020 95 360 8.7 14.8 0.00 0.00 0.00 50 1013.7
20260903182920 96 360 7.0 14.8 0.00 0.00 0.00 51 1013.8
20260903182822 96 360 5.2 12.2 0.00 0.00 0.00 51 1013.9
20260903182722 96 360 3.5 12.2 0.00 0.00 0.00 51 1013.8
20260903182642 96 360 2.6 12.2 0.00 0.00 0.00 51 1013.8
20260903182521 96 360 1.7 12.2 0.00 0.00 0.00 52 1013.8
20260903182426 95 360 2.6 12.2 0.00 0.00 0.00 56 1013.8
20260903182327 95 360 2.6 17.4 0.00 0.00 0.00 56 1013.8
20260903182228 94 360 3.5 17.4 0.00 0.00 0.00 55 1013.8
20260903182129 94 360 5.2 17.4 0.00 0.00 0.00 54 1013.9
20260903182050 94 360 6.1 17.4 0.00 0.00 0.00 54 1013.9
20260903181929 94 360 4.3 17.4 0.00 0.00 0.00 54 1013.9
20260903181850 94 360 3.5 17.4 0.00 0.00 0.00 53 1013.9
20260903181730 94 360 6.1 17.4 0.00 0.00 0.00 54 1013.9
20260903181634 94 360 8.7 17.4 0.00 0.00 0.00 54 1014.0
20260903181555 94 360 8.7 17.4 0.00 0.00 0.00 53 1013.9
20260903181434 94 360 7.0 16.5 0.00 0.00 0.00 53 1014.0
20260903181334 94 360 7.8 16.5 0.00 0.00 0.00 53 1013.9
20260903181255 94 360 10.4 16.5 0.00 0.00 0.00 53 1014.0
20260903181135 95 360 9.6 16.5 0.00 0.00 0.00 52 1014.0
20260903181035 95 360 8.7 14.8 0.00 0.00 0.00 52 1014.0
20260903180939 95 360 7.8 13.9 0.00 0.00 0.00 53 1014.0
20260903180820 95 360 6.1 13.9 0.00 0.00 0.00 53 1014.1
20260903180739 94 360 5.2 13.9 0.00 0.00 0.00 53 1014.0
20260903180639 94 360 5.2 13.9 0.00 0.00 0.00 53 1014.1
20260903180519 94 360 5.2 13.9 0.00 0.00 0.00 54 1014.1
20260903180419 94 360 4.3 13.9 0.00 0.00 0.00 55 1014.1
20260903180319 94 360 5.2 13.9 0.00 0.00 0.00 55 1014.1
20260903180219 94 360 7.0 13.9 0.00 0.00 0.00 54 1014.1
20260903180139 94 360 7.8 13.9 0.00 0.00 0.00 53 1014.1
20260903180023 94 360 7.8 13.9 0.00 0.00 0.00 53 1014.1
20260903175924 95 360 6.1 12.2 0.00 0.00 0.00 55 1014.2
20260903175826 95 360 4.3 12.2 0.00 0.00 0.00 54 1014.1
20260903175746 95 360 2.6 10.4 0.00 0.00 0.00 54 1014.1
20260903175626 95 360 2.6 10.4 0.00 0.00 0.00 54 1014.1
20260903175526 94 360 2.6 10.4 0.00 0.00 0.00 53 1014.1
20260903175447 95 360 4.3 10.4 0.00 0.00 0.00 54 1014.3
20260903175330 95 360 3.5 10.4 0.00 0.00 0.00 54 1014.2
20260903175251 95 360 3.5 13.0 0.00 0.00 0.00 53 1014.3
20260903175151 95 230 4.3 13.0 0.00 0.00 0.00 53 1014.2
20260903175029 95 360 4.3 18.2 0.00 0.00 0.00 53 1014.3
20260903174930 95 360 4.3 18.2 0.00 0.00 0.00 53 1014.2
20260903174851 96 360 4.3 18.2 0.00 0.00 0.00 54 1014.2
20260903174751 95 360 4.3 18.2 0.00 0.00 0.00 55 1014.2
20260903174651 95 360 4.3 18.2 0.00 0.00 0.00 55 1014.2
20260903174549 94 360 4.3 18.2 0.00 0.00 0.00 56 1014.2
20260903174429 93 360 7.0 18.2 0.00 0.00 0.00 56 1014.1
20260903174335 93 360 9.6 18.2 0.00 0.00 0.00 55 1014.2
20260903174235 94 360 9.6 18.2 0.00 0.00 0.00 55 1014.2
20260903174135 94 360 7.0 13.9 0.00 0.00 0.00 56 1014.1
20260903174056 94 360 5.2 13.9 0.00 0.00 0.00 56 1014.2
20260903173917 93 360 5.2 13.9 0.00 0.00 0.00 57 1014.2
20260903173816 93 360 5.2 14.8 0.00 0.00 0.00 57 1014.2
20260903173721 93 360 6.1 14.8 0.00 0.00 0.00 57 1014.3
20260903173621 93 360 6.1 14.8 0.00 0.00 0.00 57 1014.2
20260903173522 93 360 7.0 14.8 0.00 0.00 0.00 59 1014.3
20260903173443 93 360 5.2 14.8 0.00 0.00 0.00 59 1014.3
20260903173343 93 360 5.2 14.8 0.00 0.00 0.00 58 1014.3
20260903173223 92 178 5.2 14.8 0.00 0.00 0.00 58 1014.3
20260903173123 93 360 7.8 14.8 0.00 0.00 0.00 58 1014.3
20260903173023 93 360 7.8 14.8 0.00 0.00 0.00 58 1014.4
20260903172927 93 360 7.8 14.8 0.00 0.00 0.00 58 1014.3
20260903172829 93 360 7.8 13.9 0.00 0.00 0.00 58 1014.3
20260903172729 93 360 8.7 13.9 0.00 0.00 0.00 58 1014.3
20260903172650 93 360 7.8 13.9 0.00 0.00 0.00 58 1014.3
20260903172530 93 360 7.8 13.9 0.00 0.00 0.00 57 1014.4
20260903172430 94 360 7.0 13.9 0.00 0.00 0.00 57 1014.5
20260903172331 94 360 7.0 13.0 0.00 0.00 0.00 57 1014.6
20260903172215 95 166 4.3 11.3 0.00 0.00 0.00 55 1014.6
20260903172116 95 360 3.5 11.3 0.00 0.00 0.00 56 1014.6
20260903172016 94 360 1.7 11.3 0.00 0.00 0.00 55 1014.6
20260903171917 94 360 3.5 11.3 0.00 0.00 0.00 56 1014.6
20260903171836 94 360 3.5 11.3 0.00 0.00 0.00 59 1014.7
20260903171735 94 360 5.2 11.3 0.00 0.00 0.00 59 1014.7
20260903171615 93 360 5.2 11.3 0.00 0.00 0.00 59 1014.6
20260903171517 93 360 5.2 11.3 0.00 0.00 0.00 58 1014.7
20260903171436 93 360 4.3 11.3 0.00 0.00 0.00 60 1014.7
20260903171357 93 360 3.5 10.4 0.00 0.00 0.00 60 1014.7
20260903171235 92 360 5.2 10.4 0.00 0.00 0.00 60 1014.7
20260903171135 92 360 6.1 10.4 0.00 0.00 0.00 60 1014.7
20260903171036 92 360 6.1 13.9 0.00 0.00 0.00 59 1014.7
20260903170916 93 360 6.1 13.9 0.00 0.00 0.00 59 1014.8
20260903170840 93 360 4.3 13.9 0.00 0.00 0.00 60 1014.7
20260903170720 92 360 4.3 13.9 0.00 0.00 0.00 59 1014.7
20260903170620 92 360 3.5 13.9 0.00 0.00 0.00 59 1014.7
20260903170520 92 360 3.5 13.9 0.00 0.00 0.00 61 1014.7
20260903170422 92 360 3.5 13.9 0.00 0.00 0.00 61 1014.7
20260903170321 91 360 5.2 13.9 0.00 0.00 0.00 60 1014.8
20260903170222 92 360 7.0 13.9 0.00 0.00 0.00 60 1014.7
20260903170147 92 360 8.7 12.2 0.00 0.00 0.00 61 1014.8
20260903170026 92 360 9.6 12.2 0.00 0.00 0.00 60 1014.8
20260903165947 93 360 7.8 12.2 0.00 0.00 0.00 59 1014.8
20260903165827 93 360 5.2 12.2 0.00 0.00 0.00 58 1014.8
20260903165746 93 360 3.5 13.0 0.00 0.00 0.00 60 1014.8
20260903165646 92 360 4.3 13.0 0.00 0.00 0.00 60 1014.8
20260903165526 91 360 5.2 16.5 0.00 0.00 0.00 60 1014.8
20260903165426 91 360 5.2 16.5 0.00 0.00 0.00 60 1014.8
20260903165347 91 360 3.5 16.5 0.00 0.00 0.00 59 1014.8
20260903165231 91 360 4.3 16.5 0.00 0.00 0.00 59 1014.8
20260903165131 91 360 4.3 16.5 0.00 0.00 0.00 59 1014.9
20260903165032 91 360 5.2 16.5 0.00 0.00 0.00 58 1014.8
20260903164952 91 360 5.2 16.5 0.00 0.00 0.00 58 1014.8
20260903164831 92 360 7.0 16.5 0.00 0.00 0.00 59 1014.9
20260903164732 91 360 8.7 16.5 0.00 0.00 0.00 59 1014.8
20260903164617 92 360 8.7 16.5 0.00 0.00 0.00 60 1014.8
20260903164516 92 360 7.0 16.5 0.00 0.00 0.00 61 1014.8
20260903164418 92 360 4.3 12.2 0.00 0.00 0.00 61 1014.9
20260903164317 91 360 3.5 13.0 0.00 0.00 0.00 62 1014.8
20260903164218 91 360 4.3 13.0 0.00 0.00 0.00 63 1015.0
20260903164119 90 360 6.1 13.0 0.00 0.00 0.00 63 1015.0
20260903164038 90 360 7.0 13.0 0.00 0.00 0.00 62 1015.0
20260903163922 90 360 6.1 13.0 0.00 0.00 0.00 63 1015.0
20260903163823 90 360 4.3 13.0 0.00 0.00 0.00 63 1015.0
20260903163724 90 360 7.0 14.8 0.00 0.00 0.00 63 1015.0
20260903163625 90 360 7.0 14.8 0.00 0.00 0.00 64 1015.0
20260903163526 90 360 7.0 14.8 0.00 0.00 0.00 64 1015.0
20260903163426 90 360 6.1 14.8 0.00 0.00 0.00 63 1015.0
20260903163346 90 360 6.1 14.8 0.00 0.00 0.00 63 1014.9
20260903163230 90 360 6.1 14.8 0.00 0.00 0.00 63 1015.0
20260903163131 90 360 7.0 14.8 0.00 0.00 0.00 63 1015.0
20260903163051 90 360 7.0 14.8 0.00 0.00 0.00 63 1015.0
20260903162951 91 360 7.0 14.8 0.00 0.00 0.00 62 1015.0
20260903162850 91 360 4.3 13.0 0.00 0.00 0.00 63 1015.0
20260903162730 90 360 6.1 13.0 0.00 0.00 0.00 63 1015.1
20260903162629 90 360 7.0 13.9 0.00 0.00 0.00 63 1015.0
20260903162550 90 360 7.0 13.9 0.00 0.00 0.00 63 1015.0
20260903162428 90 360 4.3 13.9 0.00 0.00 0.00 63 1015.0
20260903162333 90 360 4.3 13.9 0.00 0.00 0.00 64 1015.0
20260903162235 90 360 4.3 13.9 0.00 0.00 0.00 64 1015.0
20260903162136 90 360 5.2 13.9 0.00 0.00 0.00 65 1015.0
20260903162016 89 360 7.0 13.9 0.00 0.00 0.00 65 1015.0
20260903161937 89 360 7.8 13.9 0.00 0.00 0.00 65 1015.0
20260903161816 89 360 7.8 13.9 0.00 0.00 0.00 65 1015.0
20260903161717 89 360 7.8 16.5 0.00 0.00 0.00 65 1015.1
20260903161620 89 360 8.7 16.5 0.00 0.00 0.00 65 1015.1
20260903161521 89 360 7.8 16.5 0.00 0.00 0.00 64 1015.0
20260903161421 90 360 7.0 16.5 0.00 0.00 0.00 64 1015.0
20260903161344 90 360 7.0 16.5 0.00 0.00 0.00 64 1015.0
20260903161223 90 360 6.1 16.5 0.00 0.00 0.00 63 1015.0
20260903161124 90 360 6.1 16.5 0.00 0.00 0.00 63 1014.9
20260903161043 90 360 4.3 16.5 0.00 0.00 0.00 63 1015.0
20260903160923 90 360 5.2 16.5 0.00 0.00 0.00 63 1015.0
20260903160827 90 360 3.5 15.6 0.00 0.00 0.00 64 1014.9
20260903160728 90 360 4.3 15.6 0.00 0.00 0.00 65 1015.0
20260903160628 89 360 4.3 15.6 0.00 0.00 0.00 65 1014.9
20260903160529 89 360 5.2 15.6 0.00 0.00 0.00 64 1014.9
20260903160430 89 360 5.2 16.5 0.00 0.00 0.00 64 1014.9
20260903160331 89 360 5.2 16.5 0.00 0.00 0.00 64 1014.9
20260903160232 89 360 6.1 16.5 0.00 0.00 0.00 64 1014.9
20260903160116 89 360 4.3 16.5 0.00 0.00 0.00 64 1014.9
20260903160016 89 360 4.3 16.5 0.00 0.00 0.00 64 1015.0
20260903155917 89 360 5.2 16.5 0.00 0.00 0.00 64 1015.0
20260903155819 89 360 6.1 16.5 0.00 0.00 0.00 64 1015.0
20260903155719 89 360 6.1 16.5 0.00 0.00 0.00 64 1015.0
20260903155619 89 360 5.2 16.5 0.00 0.00 0.00 64 1015.0
20260903155524 89 360 5.2 14.8 0.00 0.00 0.00 64 1015.0
20260903155444 89 360 4.3 14.8 0.00 0.00 0.00 64 1015.0
20260903155344 89 360 4.3 14.8 0.00 0.00 0.00 64 1015.1
20260903155243 89 360 4.3 14.8 0.00 0.00 0.00 64 1015.1
20260903155123 89 360 4.3 15.6 0.00 0.00 0.00 64 1015.0
20260903155024 88 360 5.2 15.6 0.00 0.00 0.00 64 1015.1
20260903154924 88 360 7.0 15.6 0.00 0.00 0.00 64 1015.0
20260903154826 88 360 7.8 15.6 0.00 0.00 0.00 64 1015.0
20260903154731 88 360 8.7 15.6 0.00 0.00 0.00 64 1015.0
20260903154631 89 360 7.8 15.6 0.00 0.00 0.00 64 1015.0
20260903154531 89 360 7.0 15.6 0.00 0.00 0.00 65 1014.9
20260903154432 89 360 7.0 15.6 0.00 0.00 0.00 65 1015.0
20260903154333 89 360 7.0 15.6 0.00 0.00 0.00 65 1015.0
20260903154234 89 360 5.2 17.4 0.00 0.00 0.00 66 1015.0
20260903154119 89 360 4.3 17.4 0.00 0.00 0.00 65 1015.0
20260903154020 89 360 2.6 17.4 0.00 0.00 0.00 66 1015.0
20260903153921 88 360 3.5 17.4 0.00 0.00 0.00 66 1014.9
20260903153821 88 360 3.5 17.4 0.00 0.00 0.00 67 1015.0
20260903153722 88 360 5.2 17.4 0.00 0.00 0.00 67 1015.0
20260903153623 87 360 5.2 17.4 0.00 0.00 0.00 67 1015.0
20260903153527 87 360 7.8 17.4 0.00 0.00 0.00 67 1014.9
20260903153428 88 360 9.6 17.4 0.00 0.00 0.00 68 1014.9
20260903153328 88 360 9.6 16.5 0.00 0.00 0.00 65 1015.0
20260903153229 88 360 7.0 15.6 0.00 0.00 0.00 65 1015.0
20260903153128 89 360 6.1 12.2 0.00 0.00 0.00 66 1015.0
20260903153029 89 360 4.3 12.2 0.00 0.00 0.00 67 1015.0
20260903152930 89 360 4.3 12.2 0.00 0.00 0.00 68 1015.1
20260903152835 89 360 3.5 13.9 0.00 0.00 0.00 68 1015.1
20260903152735 88 360 4.3 15.6 0.00 0.00 0.00 68 1015.1
20260903152635 88 360 4.3 15.6 0.00 0.00 0.00 68 1015.0
20260903152536 88 360 4.3 15.6 0.00 0.00 0.00 68 1015.1
20260903152416 88 360 5.2 15.6 0.00 0.00 0.00 68 1015.0
20260903152316 87 360 5.2 15.6 0.00 0.00 0.00 68 1015.0
20260903152221 87 360 6.1 15.6 0.00 0.00 0.00 69 1015.0
20260903152141 87 360 7.0 15.6 0.00 0.00 0.00 69 1015.1
20260903152021 86 360 7.0 15.6 0.00 0.00 0.00 69 1015.0
20260903151921 86 360 5.2 13.0 0.00 0.00 0.00 69 1015.0
20260903151822 87 360 6.1 13.0 0.00 0.00 0.00 69 1015.0
20260903151743 87 360 5.2 13.0 0.00 0.00 0.00 69 1015.0
20260903151623 87 360 4.3 13.0 0.00 0.00 0.00 69 1015.0
20260903151522 87 360 3.5 13.0 0.00 0.00 0.00 69 1014.9
20260903151427 87 360 3.5 13.0 0.00 0.00 0.00 69 1014.9
20260903151327 87 360 4.3 13.0 0.00 0.00 0.00 70 1014.9
20260903151226 87 360 5.2 13.0 0.00 0.00 0.00 70 1014.9
20260903151127 87 360 6.1 13.0 0.00 0.00 0.00 70 1014.8
20260903151047 87 360 5.2 13.0 0.00 0.00 0.00 70 1014.8
20260903150927 87 360 4.3 13.0 0.00 0.00 0.00 70 1014.9
20260903150828 87 360 3.5 12.2 0.00 0.00 0.00 70 1015.0
20260903150732 87 360 2.6 13.9 0.00 0.00 0.00 71 1014.9
20260903150632 86 360 3.5 13.9 0.00 0.00 0.00 71 1014.9
20260903150534 86 360 4.3 13.9 0.00 0.00 0.00 71 1015.0
20260903150433 86 360 5.2 13.9 0.00 0.00 0.00 71 1015.0
20260903150316 86 360 5.2 13.9 0.00 0.00 0.00 72 1015.0
20260903150216 86 360 5.2 13.9 0.00 0.00 0.00 72 1015.0
20260903150120 86 360 7.0 13.9 0.00 0.00 0.00 72 1015.0
20260903150021 86 360 6.1 13.9 0.00 0.00 0.00 71 1015.0
20260903145941 86 360 7.0 13.9 0.00 0.00 0.00 71 1014.9
20260903145822 86 360 5.2 13.0 0.00 0.00 0.00 71 1014.9
20260903145719 86 360 6.1 13.0 0.00 0.00 0.00 72 1015.0
20260903145620 86 360 6.1 13.0 0.00 0.00 0.00 71 1014.9
20260903145520 86 360 6.1 13.0 0.00 0.00 0.00 71 1015.0
20260903145421 86 360 5.2 13.0 0.00 0.00 0.00 71 1014.8
20260903145325 86 360 4.3 13.0 0.00 0.00 0.00 71 1014.8
20260903145225 86 360 4.3 13.0 0.00 0.00 0.00 71 1014.9
20260903145126 86 360 4.3 12.2 0.00 0.00 0.00 72 1014.9
20260903145027 86 360 5.2 12.2 0.00 0.00 0.00 72 1015.0
20260903144946 86 360 5.2 13.0 0.00 0.00 0.00 72 1014.8
20260903144826 86 360 6.1 13.0 0.00 0.00 0.00 72 1014.9
20260903144727 86 360 5.2 13.0 0.00 0.00 0.00 72 1014.9
20260903144632 86 360 5.2 17.4 0.00 0.00 0.00 72 1014.9
20260903144531 86 360 5.2 17.4 0.00 0.00 0.00 72 1014.7
20260903144432 86 360 5.2 17.4 0.00 0.00 0.00 73 1014.8
20260903144333 86 360 5.2 17.4 0.00 0.00 0.00 74 1014.8
20260903144234 85 360 6.1 17.4 0.00 0.00 0.00 74 1014.8
20260903144154 85 360 7.8 17.4 0.00 0.00 0.00 74 1014.8
20260903144033 85 360 7.8 17.4 0.00 0.00 0.00 74 1014.8
20260903143918 85 360 7.0 17.4 0.00 0.00 0.00 74 1014.8
20260903143819 85 360 6.1 19.1 0.00 0.00 0.00 74 1014.8
20260903143719 85 360 6.1 19.1 0.00 0.00 0.00 74 1014.8
20260903143620 85 360 7.0 19.1 0.00 0.00 0.00 74 1014.8
20260903143521 85 360 6.1 19.1 0.00 0.00 0.00 74 1014.8
20260903143421 85 360 7.0 19.1 0.00 0.00 0.00 74 1014.9
20260903143327 85 360 7.0 19.1 0.00 0.00 0.00 75 1014.8
20260903143226 84 360 7.8 19.1 0.00 0.00 0.00 76 1014.8
20260903143127 84 360 8.7 19.1 0.00 0.00 0.00 75 1014.8
20260903143027 85 360 6.1 19.1 0.00 0.00 0.00 75 1014.8
20260903142928 85 360 4.3 13.9 0.00 0.00 0.00 77 1014.8
20260903142831 85 360 4.3 14.8 0.00 0.00 0.00 77 1014.8
20260903142750 85 360 5.2 14.8 0.00 0.00 0.00 76 1014.8
20260903142633 84 360 5.2 14.8 0.00 0.00 0.00 77 1014.8
20260903142533 84 360 6.1 14.8 0.00 0.00 0.00 76 1014.9
20260903142433 84 360 6.1 15.6 0.00 0.00 0.00 77 1014.9
20260903142354 84 360 6.1 15.6 0.00 0.00 0.00 77 1014.9
20260903142253 84 360 5.2 16.5 0.00 0.00 0.00 77 1014.8
20260903142132 84 360 7.0 16.5 0.00 0.00 0.00 77 1015.0
20260903142032 84 360 6.1 16.5 0.00 0.00 0.00 77 1015.0
20260903141933 84 360 6.1 16.5 0.00 0.00 0.00 77 1015.0
20260903141817 84 360 5.2 16.5 0.00 0.00 0.00 77 1014.9
20260903141717 84 360 3.5 16.5 0.00 0.00 0.00 77 1015.0
20260903141618 83 360 4.3 16.5 0.00 0.00 0.00 77 1015.0
20260903141520 83 360 6.1 16.5 0.00 0.00 0.00 77 1015.0
20260903141420 83 360 7.8 16.5 0.00 0.00 0.00 77 1015.0
20260903141340 83 360 7.8 15.6 0.00 0.00 0.00 77 1015.0
20260903141220 84 360 7.8 15.6 0.00 0.00 0.00 77 1015.0
20260903141125 84 360 6.1 15.6 0.00 0.00 0.00 77 1015.0
20260903141046 84 360 5.2 12.2 0.00 0.00 0.00 77 1015.0
20260903140925 84 360 4.3 9.6 0.00 0.00 0.00 77 1015.0
20260903140825 84 360 4.3 9.6 0.00 0.00 0.00 77 1015.0
20260903140726 84 360 3.5 9.6 0.00 0.00 0.00 78 1014.9
20260903140627 84 360 2.6 10.4 0.00 0.00 0.00 78 1015.0
20260903140547 84 360 1.7 10.4 0.00 0.00 0.00 78 1015.1
20260903140447 84 360 2.6 10.4 0.00 0.00 0.00 78 1014.9
20260903140330 83 360 2.6 11.3 0.00 0.00 0.00 79 1015.0
20260903140230 83 360 3.5 12.2 0.00 0.00 0.00 79 1015.0
20260903140151 83 360 3.5 12.2 0.00 0.00 0.00 79 1015.0
20260903140050 83 360 3.5 12.2 0.00 0.00 0.00 79 1015.1
20260903135930 83 360 2.6 12.2 0.00 0.00 0.00 79 1015.1
20260903135832 83 360 2.6 12.2 0.00 0.00 0.00 79 1015.1
20260903135729 83 360 2.6 12.2 0.00 0.00 0.00 80 1015.0
20260903135630 83 360 4.3 12.2 0.00 0.00 0.00 80 1015.0
20260903135535 83 360 4.3 12.2 0.00 0.00 0.00 80 1014.9
20260903135457 83 360 4.3 12.2 0.00 0.00 0.00 80 1015.0
20260903135335 83 360 3.5 13.0 0.00 0.00 0.00 80 1014.9
20260903135216 83 360 4.3 13.0 0.00 0.00 0.00 80 1014.9
20260903135116 83 360 3.5 13.0 0.00 0.00 0.00 80 1015.0
20260903135017 83 360 3.5 13.0 0.00 0.00 0.00 80 1015.0
20260903134938 82 360 3.5 14.8 0.00 0.00 0.00 80 1014.9
20260903134822 82 360 4.3 14.8 0.00 0.00 0.00 80 1014.9
20260903134723 82 360 4.3 14.8 0.00 0.00 0.00 80 1014.9
20260903134623 82 360 6.1 14.8 0.00 0.00 0.00 80 1014.9
20260903134524 82 360 6.1 14.8 0.00 0.00 0.00 80 1015.0
20260903134423 82 360 6.1 14.8 0.00 0.00 0.00 81 1015.0
20260903134325 82 360 4.3 14.8 0.00 0.00 0.00 81 1015.0
20260903134226 82 360 5.2 14.8 0.00 0.00 0.00 80 1015.0
20260903134131 82 360 4.3 14.8 0.00 0.00 0.00 80 1015.0
20260903134051 82 360 5.2 14.8 0.00 0.00 0.00 80 1015.0
20260903133931 82 360 4.3 14.8 0.00 0.00 0.00 80 1015.1
20260903133831 82 360 4.3 14.8 0.00 0.00 0.00 80 1015.1
20260903133731 82 360 4.3 11.3 0.00 0.00 0.00 80 1015.0
20260903133632 82 360 4.3 11.3 0.00 0.00 0.00 81 1015.0
20260903133516 82 360 5.2 11.3 0.00 0.00 0.00 81 1015.0
20260903133417 82 360 6.1 11.3 0.00 0.00 0.00 81 1015.1
20260903133319 82 360 6.1 11.3 0.00 0.00 0.00 81 1015.0
20260903133219 82 360 5.2 11.3 0.00 0.00 0.00 81 1015.0
20260903133120 82 360 4.3 10.4 0.00 0.00 0.00 81 1015.0
20260903133020 82 360 4.3 9.6 0.00 0.00 0.00 81 1015.0
20260903132922 82 360 4.3 9.6 0.00 0.00 0.00 81 1015.0
20260903132826 82 360 3.5 9.6 0.00 0.00 0.00 81 1015.1
20260903132746 82 360 3.5 9.6 0.00 0.00 0.00 81 1015.1
20260903132625 82 360 2.6 8.7 0.00 0.00 0.00 82 1015.0
20260903132526 82 360 2.6 12.2 0.00 0.00 0.00 82 1015.1
20260903132446 82 360 2.6 12.2 0.00 0.00 0.00 82 1015.0
20260903132325 82 360 2.6 12.2 0.00 0.00 0.00 82 1015.1
20260903132226 82 360 3.5 12.2 0.00 0.00 0.00 82 1015.1
20260903132131 82 360 3.5 12.2 0.00 0.00 0.00 82 1015.0
20260903132031 82 360 3.5 12.2 0.00 0.00 0.00 82 1015.1
20260903131932 81 360 5.2 12.2 0.00 0.00 0.00 83 1015.1
20260903131853 81 360 5.2 12.2 0.00 0.00 0.00 83 1015.1
20260903131752 81 360 6.1 12.2 0.00 0.00 0.00 82 1015.1
20260903131632 81 360 5.2 10.4 0.00 0.00 0.00 83 1015.0
20260903131533 81 360 5.2 10.4 0.00 0.00 0.00 83 1015.0
20260903131417 81 360 6.1 12.2 0.00 0.00 0.00 83 1015.0
20260903131319 81 360 4.3 12.2 0.00 0.00 0.00 83 1015.1
20260903131219 81 360 3.5 12.2 0.00 0.00 0.00 83 1015.1
20260903131139 81 360 2.6 12.2 0.00 0.00 0.00 83 1015.1
20260903131019 81 360 2.6 12.2 0.00 0.00 0.00 83 1015.1
20260903130918 81 360 2.6 12.2 0.00 0.00 0.00 83 1015.1
20260903130820 81 360 2.6 12.2 0.00 0.00 0.00 83 1015.1
20260903130721 81 360 4.3 12.2 0.00 0.00 0.00 83 1015.1
20260903130644 81 360 4.3 12.2 0.00 0.00 0.00 83 1015.1
20260903130524 81 360 6.1 12.2 0.00 0.00 0.00 84 1015.1
20260903130445 81 360 4.3 8.7 0.00 0.00 0.00 84 1015.1
20260903130325 81 360 4.3 8.7 0.00 0.00 0.00 84 1015.0
20260903130246 81 360 5.2 8.7 0.00 0.00 0.00 84 1014.8
20260903130126 81 360 5.2 8.7 0.00 0.00 0.00 84 1014.9
20260903130046 81 360 5.2 9.6 0.00 0.00 0.00 84 1014.8
20260903125925 81 360 3.5 7.8 0.00 0.00 0.00 84 1014.9
20260903125831 81 360 3.5 7.8 0.00 0.00 0.00 84 1014.9
20260903125730 81 360 3.5 7.8 0.00 0.00 0.00 84 1014.9
20260903125632 81 360 3.5 9.6 0.00 0.00 0.00 84 1014.9
20260903125552 81 360 3.5 9.6 0.00 0.00 0.00 84 1014.9
20260903125432 80 360 2.6 9.6 0.00 0.00 0.00 84 1015.0
20260903125332 80 360 2.6 9.6 0.00 0.00 0.00 84 1015.0
20260903125233 80 360 2.6 9.6 0.00 0.00 0.00 84 1014.9
20260903125117 80 360 3.5 9.6 0.00 0.00 0.00 84 1014.9
20260903125018 80 360 4.3 9.6 0.00 0.00 0.00 85 1014.8
20260903124919 80 360 3.5 10.4 0.00 0.00 0.00 85 1014.8
20260903124819 80 360 3.5 10.4 0.00 0.00 0.00 85 1014.8
20260903124720 80 360 3.5 10.4 0.00 0.00 0.00 85 1014.7
20260903124640 80 360 4.3 10.4 0.00 0.00 0.00 85 1014.8
20260903124521 80 360 3.5 10.4 0.00 0.00 0.00 85 1014.8
20260903124425 80 360 3.5 10.4 0.00 0.00 0.00 85 1014.8
20260903124326 80 360 3.5 10.4 0.00 0.00 0.00 85 1014.8
20260903124247 80 360 5.2 10.4 0.00 0.00 0.00 85 1014.8
20260903124126 80 360 5.2 11.3 0.00 0.00 0.00 85 1014.8
20260903124046 80 360 4.3 11.3 0.00 0.00 0.00 85 1014.8
20260903123946 80 360 4.3 11.3 0.00 0.00 0.00 85 1014.8
20260903123845 80 360 5.2 11.3 0.00 0.00 0.00 85 1014.7
20260903123724 80 360 3.5 11.3 0.00 0.00 0.00 85 1014.8
20260903123629 80 360 2.6 11.3 0.00 0.00 0.00 85 1014.7
20260903123529 80 360 3.5 11.3 0.00 0.00 0.00 85 1014.7
20260903123428 80 360 4.3 11.3 0.00 0.00 0.00 85 1014.7
20260903123330 80 360 5.2 11.3 0.00 0.00 0.00 85 1014.7
20260903123231 80 360 3.5 10.4 0.00 0.00 0.00 85 1014.7
20260903123132 80 360 3.5 10.4 0.00 0.00 0.00 85 1014.7
20260903123032 80 360 4.3 10.4 0.00 0.00 0.00 85 1014.7
20260903122916 80 360 5.2 10.4 0.00 0.00 0.00 85 1014.7
20260903122839 80 360 5.2 10.4 0.00 0.00 0.00 85 1014.7
20260903122718 80 360 4.3 11.3 0.00 0.00 0.00 85 1014.7
20260903122618 80 169 2.6 11.3 0.00 0.00 0.00 85 1014.6
20260903122517 80 360 2.6 11.3 0.00 0.00 0.00 85 1014.7
20260903122419 80 360 3.5 13.9 0.00 0.00 0.00 85 1014.6
20260903122319 80 360 3.5 13.9 0.00 0.00 0.00 85 1014.6
20260903122223 80 360 2.6 13.9 0.00 0.00 0.00 85 1014.6
20260903122123 80 360 3.5 13.9 0.00 0.00 0.00 85 1014.6
20260903122025 80 360 4.3 13.9 0.00 0.00 0.00 85 1014.6
20260903121925 80 360 5.2 13.9 0.00 0.00 0.00 85 1014.5
20260903121826 80 360 4.3 13.9 0.00 0.00 0.00 85 1014.5
20260903121727 80 360 4.3 13.9 0.00 0.00 0.00 85 1014.6
20260903121628 80 360 4.3 13.9 0.00 0.00 0.00 85 1014.6
20260903121533 80 360 5.2 13.0 0.00 0.00 0.00 85 1014.5
20260903121433 80 360 5.2 13.0 0.00 0.00 0.00 85 1014.5
20260903121333 80 360 6.1 13.0 0.00 0.00 0.00 85 1014.5
20260903121235 80 360 5.2 13.0 0.00 0.00 0.00 85 1014.5
20260903121116 80 360 4.3 13.0 0.00 0.00 0.00 85 1014.5
20260903121016 80 360 4.3 13.0 0.00 0.00 0.00 85 1014.6
20260903120921 80 360 5.2 13.0 0.00 0.00 0.00 85 1014.5
20260903120822 80 360 5.2 13.0 0.00 0.00 0.00 85 1014.5
20260903120722 80 360 4.3 13.0 0.00 0.00 0.00 85 1014.5
20260903120622 80 360 3.5 13.0 0.00 0.00 0.00 85 1014.5
20260903120523 80 360 5.2 13.0 0.00 0.00 0.00 85 1014.4
20260903120444 80 184 6.1 13.0 0.00 0.00 0.00 85 1014.5
20260903120324 80 360 5.2 13.0 0.00 0.00 0.00 85 1014.4
20260903120228 80 360 4.3 11.3 0.00 0.00 0.00 85 1014.4
20260903120129 80 360 2.6 9.6 0.00 0.00 0.00 85 1014.4
20260903120050 80 360 4.3 9.6 0.00 0.00 0.00 85 1014.3
20260903115929 80 360 4.3 9.6 0.00 0.00 0.00 85 1014.4
20260903115832 80 360 4.3 9.6 0.00 0.00 0.00 85 1014.3
20260903115731 80 360 4.3 11.3 0.00 0.00 0.00 85 1014.4
20260903115630 80 360 3.5 11.3 0.00 0.00 0.00 85 1014.4
20260903115534 80 360 3.5 11.3 0.00 0.00 0.00 85 1014.3
20260903115436 80 360 2.6 11.3 0.00 0.00 0.00 85 1014.4
20260903115316 80 360 2.6 11.3 0.00 0.00 0.00 85 1014.4
20260903115216 80 360 4.3 11.3 0.00 0.00 0.00 85 1014.4
20260903115117 80 360 5.2 11.3 0.00 0.00 0.00 85 1014.3
20260903115019 80 360 6.1 13.0 0.00 0.00 0.00 85 1014.3
20260903114940 80 360 6.1 13.0 0.00 0.00 0.00 85 1014.3
20260903114823 80 360 5.2 13.0 0.00 0.00 0.00 85 1014.3
20260903114723 80 360 5.2 13.0 0.00 0.00 0.00 85 1014.3
20260903114624 80 360 3.5 13.0 0.00 0.00 0.00 85 1014.2
20260903114523 80 360 3.5 13.0 0.00 0.00 0.00 85 1014.3
20260903114425 80 360 3.5 13.0 0.00 0.00 0.00 85 1014.2
20260903114325 80 360 4.3 13.0 0.00 0.00 0.00 85 1014.2
20260903114245 80 360 6.1 13.0 0.00 0.00 0.00 85 1014.2
20260903114129 80 360 6.1 13.0 0.00 0.00 0.00 85 1014.3
20260903114030 80 360 6.1 12.2 0.00 0.00 0.00 85 1014.2
20260903113932 80 360 5.2 12.2 0.00 0.00 0.00 85 1014.2
20260903113832 80 360 4.3 11.3 0.00 0.00 0.00 85 1014.2
20260903113733 80 360 3.5 11.3 0.00 0.00 0.00 85 1014.2
20260903113634 80 360 2.6 11.3 0.00 0.00 0.00 85 1014.2
20260903113519 80 360 3.5 11.3 0.00 0.00 0.00 85 1014.2
20260903113419 80 360 3.5 11.3 0.00 0.00 0.00 85 1014.2
20260903113320 80 360 3.5 11.3 0.00 0.00 0.00 85 1014.2
20260903113220 80 360 3.5 11.3 0.00 0.00 0.00 85 1014.3
20260903113122 80 360 3.5 11.3 0.00 0.00 0.00 86 1014.3
20260903113042 80 360 3.5 11.3 0.00 0.00 0.00 86 1014.2
20260903112922 80 360 3.5 11.3 0.00 0.00 0.00 86 1014.3
20260903112828 80 360 4.3 11.3 0.00 0.00 0.00 86 1014.3
20260903112728 80 360 5.2 12.2 0.00 0.00 0.00 86 1014.3
20260903112628 80 360 5.2 12.2 0.00 0.00 0.00 86 1014.3
20260903112549 80 360 5.2 12.2 0.00 0.00 0.00 86 1014.2
20260903112427 80 360 5.2 12.2 0.00 0.00 0.00 86 1014.2
20260903112348 80 360 6.1 12.2 0.00 0.00 0.00 86 1014.2
20260903112228 80 360 7.0 12.2 0.00 0.00 0.00 86 1014.2
20260903112128 80 360 6.1 12.2 0.00 0.00 0.00 86 1014.3
20260903112033 80 360 6.1 12.2 0.00 0.00 0.00 86 1014.2
20260903111934 80 360 6.1 12.2 0.00 0.00 0.00 86 1014.2
20260903111835 80 360 5.2 11.3 0.00 0.00 0.00 86 1014.1
20260903111716 80 360 6.1 11.3 0.00 0.00 0.00 86 1014.2
20260903111617 80 360 5.2 11.3 0.00 0.00 0.00 86 1014.1
20260903111517 80 360 4.3 11.3 0.00 0.00 0.00 86 1014.2
20260903111422 80 360 3.5 11.3 0.00 0.00 0.00 86 1014.2
20260903111321 80 360 3.5 11.3 0.00 0.00 0.00 86 1014.2
20260903111222 80 360 3.5 11.3 0.00 0.00 0.00 86 1014.2
20260903111121 80 360 5.2 11.3 0.00 0.00 0.00 86 1014.2
20260903111021 80 360 6.1 11.3 0.00 0.00 0.00 86 1014.2
20260903110922 80 360 5.2 11.3 0.00 0.00 0.00 86 1014.2
20260903110843 80 360 5.2 11.3 0.00 0.00 0.00 86 1014.1
20260903110722 79 360 4.3 10.4 0.00 0.00 0.00 87 1014.2
20260903110643 79 360 4.3 11.3 0.00 0.00 0.00 87 1014.1
20260903110527 80 360 4.3 11.3 0.00 0.00 0.00 87 1014.1
20260903110426 79 360 4.3 11.3 0.00 0.00 0.00 87 1014.2
20260903110326 79 360 4.3 11.3 0.00 0.00 0.00 87 1014.1
20260903110227 79 360 3.5 11.3 0.00 0.00 0.00 87 1014.1
20260903110128 79 360 4.3 11.3 0.00 0.00 0.00 87 1014.1
20260903110027 79 360 4.3 11.3 0.00 0.00 0.00 87 1014.1
20260903105928 79 192 5.2 11.3 0.00 0.00 0.00 87 1014.1
20260903105834 79 360 6.1 11.3 0.00 0.00 0.00 87 1014.1
20260903105755 79 360 6.1 11.3 0.00 0.00 0.00 87 1014.1
20260903105633 79 360 5.2 11.3 0.00 0.00 0.00 87 1014.0
20260903105534 79 360 4.3 7.8 0.00 0.00 0.00 87 1014.1
20260903105435 79 360 3.5 7.8 0.00 0.00 0.00 87 1014.1
20260903105316 79 360 2.6 7.8 0.00 0.00 0.00 87 1014.1
20260903105217 79 360 3.5 7.8 0.00 0.00 0.00 87 1014.2
20260903105141 79 360 2.6 7.8 0.00 0.00 0.00 87 1014.2
20260903105020 79 360 4.3 7.8 0.00 0.00 0.00 87 1014.1
20260903104921 79 360 4.3 7.8 0.00 0.00 0.00 87 1014.2
20260903104822 79 360 3.5 7.8 0.00 0.00 0.00 87 1014.2
20260903104723 79 360 3.5 7.8 0.00 0.00 0.00 87 1014.1
20260903104624 79 360 3.5 7.8 0.00 0.00 0.00 87 1014.1
20260903104523 79 360 3.5 7.8 0.00 0.00 0.00 87 1014.2
20260903104427 79 360 3.5 7.8 0.00 0.00 0.00 87 1014.1
20260903104328 79 360 2.6 7.8 0.00 0.00 0.00 87 1014.2
20260903104249 79 360 3.5 7.8 0.00 0.00 0.00 87 1014.2
20260903104148 79 360 3.5 7.8 0.00 0.00 0.00 87 1014.1
20260903104047 79 360 4.3 7.8 0.00 0.00 0.00 87 1014.1
20260903103926 79 360 3.5 8.7 0.00 0.00 0.00 87 1014.1
20260903103847 79 360 3.5 9.6 0.00 0.00 0.00 87 1014.1
20260903103747 79 360 3.5 10.4 0.00 0.00 0.00 87 1014.0
20260903103627 79 360 3.5 10.4 0.00 0.00 0.00 87 1014.0
20260903103547 79 360 3.5 10.4 0.00 0.00 0.00 87 1014.0
20260903103430 79 360 3.5 10.4 0.00 0.00 0.00 87 1014.1
20260903103331 79 360 3.5 10.4 0.00 0.00 0.00 87 1014.0
20260903103232 79 360 4.3 10.4 0.00 0.00 0.00 87 1014.1
20260903103133 79 360 4.3 10.4 0.00 0.00 0.00 87 1014.1
20260903103034 79 360 4.3 10.4 0.00 0.00 0.00 87 1014.0
20260903102934 79 360 4.3 10.4 0.00 0.00 0.00 87 1014.0
20260903102819 79 360 3.5 10.4 0.00 0.00 0.00 87 1014.0
20260903102719 79 360 3.5 10.4 0.00 0.00 0.00 87 1014.0
20260903102639 79 360 4.3 10.4 0.00 0.00 0.00 87 1014.0
20260903102539 79 360 4.3 10.4 0.00 0.00 0.00 87 1014.0
20260903102438 79 360 3.5 11.3 0.00 0.00 0.00 87 1014.1
20260903102318 79 360 2.6 15.6 0.00 0.00 0.00 87 1014.0
20260903102217 79 360 3.5 15.6 0.00 0.00 0.00 87 1014.1
20260903102119 79 360 4.3 15.6 0.00 0.00 0.00 87 1014.0
20260903102024 79 360 4.3 15.6 0.00 0.00 0.00 87 1014.0
20260903101924 79 360 6.1 15.6 0.00 0.00 0.00 87 1014.0
20260903101824 79 360 5.2 15.6 0.00 0.00 0.00 87 1013.9
20260903101725 79 360 6.1 15.6 0.00 0.00 0.00 87 1014.0
20260903101646 79 360 7.0 15.6 0.00 0.00 0.00 87 1013.9
20260903101525 79 360 6.1 15.6 0.00 0.00 0.00 87 1014.0
20260903101426 79 360 6.1 15.6 0.00 0.00 0.00 87 1013.9
20260903101330 79 360 4.3 14.8 0.00 0.00 0.00 87 1013.9
20260903101231 79 360 3.5 12.2 0.00 0.00 0.00 87 1013.8
20260903101131 79 195 3.5 12.2 0.00 0.00 0.00 87 1014.0
20260903101034 79 360 4.3 12.2 0.00 0.00 0.00 87 1014.0
20260903100934 79 360 4.3 12.2 0.00 0.00 0.00 87 1014.0
20260903100816 79 360 4.3 12.2 0.00 0.00 0.00 87 1013.9
20260903100721 79 360 4.3 12.2 0.00 0.00 0.00 87 1013.9
20260903100622 79 360 4.3 11.3 0.00 0.00 0.00 87 1013.9
20260903100541 79 360 5.2 11.3 0.00 0.00 0.00 87 1013.9
20260903100421 79 360 5.2 11.3 0.00 0.00 0.00 87 1013.9
20260903100322 79 360 5.2 11.3 0.00 0.00 0.00 87 1013.9
20260903100222 79 360 5.2 11.3 0.00 0.00 0.00 87 1014.0
20260903100124 79 360 5.2 11.3 0.00 0.00 0.00 87 1013.9
20260903100028 79 360 4.3 11.3 0.00 0.00 0.00 87 1013.9
20260903095930 79 360 4.3 11.3 0.00 0.00 0.00 87 1014.0
20260903095832 79 360 4.3 11.3 0.00 0.00 0.00 87 1014.0
20260903095731 79 360 4.3 11.3 0.00 0.00 0.00 87 1013.9
20260903095632 79 360 5.2 11.3 0.00 0.00 0.00 87 1014.0
20260903095551 79 360 5.2 11.3 0.00 0.00 0.00 87 1013.9
20260903095432 79 360 6.1 11.3 0.00 0.00 0.00 87 1014.0
20260903095317 79 360 5.2 11.3 0.00 0.00 0.00 87 1014.0
20260903095238 79 360 4.3 11.3 0.00 0.00 0.00 87 1014.0
20260903095117 79 360 4.3 11.3 0.00 0.00 0.00 87 1014.0
20260903095017 79 360 4.3 9.6 0.00 0.00 0.00 87 1014.0
20260903094918 79 360 5.2 9.6 0.00 0.00 0.00 87 1014.1
20260903094819 79 360 5.2 9.6 0.00 0.00 0.00 87 1014.0
20260903094720 79 360 4.3 9.6 0.00 0.00 0.00 87 1014.1
20260903094624 79 360 4.3 9.6 0.00 0.00 0.00 87 1014.2
20260903094526 79 360 3.5 8.7 0.00 0.00 0.00 87 1014.1
20260903094427 79 360 4.3 8.7 0.00 0.00 0.00 87 1014.2
20260903094347 79 360 4.3 8.7 0.00 0.00 0.00 86 1014.1
20260903094228 79 360 5.2 8.7 0.00 0.00 0.00 86 1014.1
20260903094128 79 360 4.3 8.7 0.00 0.00 0.00 86 1014.1
20260903094028 79 360 3.5 8.7 0.00 0.00 0.00 86 1014.1
20260903093950 79 360 3.5 8.7 0.00 0.00 0.00 86 1014.1
20260903093831 79 360 3.5 8.7 0.00 0.00 0.00 86 1014.2
20260903093732 79 360 3.5 8.7 0.00 0.00 0.00 86 1014.1
20260903093653 79 360 3.5 8.7 0.00 0.00 0.00 86 1014.2
20260903093533 79 360 4.3 11.3 0.00 0.00 0.00 86 1014.1
20260903093453 79 360 4.3 11.3 0.00 0.00 0.00 86 1014.1
20260903093332 79 175 5.2 11.3 0.00 0.00 0.00 86 1014.2
20260903093254 79 360 5.2 11.3 0.00 0.00 0.00 86 1014.1
20260903093133 79 360 5.2 11.3 0.00 0.00 0.00 86 1014.2
20260903093018 79 360 5.2 11.3 0.00 0.00 0.00 86 1014.2
20260903092940 79 360 6.1 11.3 0.00 0.00 0.00 86 1014.2
20260903092819 79 360 5.2 11.3 0.00 0.00 0.00 86 1014.2
20260903092719 79 360 5.2 11.3 0.00 0.00 0.00 86 1014.2
20260903092619 79 360 3.5 10.4 0.00 0.00 0.00 86 1014.2
20260903092520 79 360 2.6 9.6 0.00 0.00 0.00 86 1014.2
20260903092420 79 360 3.5 9.6 0.00 0.00 0.00 86 1014.2
20260903092325 79 360 4.3 9.6 0.00 0.00 0.00 86 1014.3
20260903092226 79 360 4.3 11.3 0.00 0.00 0.00 86 1014.3
20260903092127 79 360 4.3 11.3 0.00 0.00 0.00 86 1014.3
20260903092027 79 360 4.3 11.3 0.00 0.00 0.00 86 1014.1
20260903091947 79 360 4.3 11.3 0.00 0.00 0.00 86 1014.2
20260903091847 79 360 3.5 11.3 0.00 0.00 0.00 86 1014.2
20260903091748 79 360 4.3 11.3 0.00 0.00 0.00 86 1014.1
20260903091627 79 360 5.2 11.3 0.00 0.00 0.00 86 1014.2
20260903091532 79 360 5.2 11.3 0.00 0.00 0.00 86 1014.2
20260903091433 79 360 6.1 11.3 0.00 0.00 0.00 86 1014.2
20260903091334 79 360 4.3 11.3 0.00 0.00 0.00 86 1014.2
20260903091234 79 360 3.5 11.3 0.00 0.00 0.00 86 1014.2
20260903091135 79 360 4.3 10.4 0.00 0.00 0.00 86 1014.2
20260903091016 79 360 3.5 11.3 0.00 0.00 0.00 86 1014.2
20260903090938 79 360 3.5 11.3 0.00 0.00 0.00 86 1014.2
20260903090821 79 360 3.5 11.3 0.00 0.00 0.00 86 1014.2
20260903090723 79 360 3.5 11.3 0.00 0.00 0.00 86 1014.2
20260903090643 79 360 4.3 11.3 0.00 0.00 0.00 86 1014.2
20260903090523 79 360 5.2 11.3 0.00 0.00 0.00 86 1014.3
20260903090444 79 360 4.3 11.3 0.00 0.00 0.00 86 1014.3
20260903090324 79 360 5.2 11.3 0.00 0.00 0.00 86 1014.3
20260903090224 79 360 7.0 11.3 0.00 0.00 0.00 86 1014.2
20260903090125 79 165 6.1 11.3 0.00 0.00 0.00 86 1014.2
20260903090029 79 360 5.2 11.3 0.00 0.00 0.00 86 1014.3
20260903085930 79 360 4.3 9.6 0.00 0.00 0.00 86 1014.3
20260903085832 79 360 3.5 9.6 0.00 0.00 0.00 86 1014.3
20260903085732 79 360 3.5 9.6 0.00 0.00 0.00 86 1014.3
20260903085633 79 360 4.3 9.6 0.00 0.00 0.00 86 1014.3
20260903085534 79 170 4.3 10.4 0.00 0.00 0.00 86 1014.3
20260903085417 79 360 4.3 11.3 0.00 0.00 0.00 86 1014.3
20260903085318 79 360 4.3 11.3 0.00 0.00 0.00 86 1014.3
20260903085219 79 170 3.5 11.3 0.00 0.00 0.00 86 1014.4
20260903085139 79 360 3.5 11.3 0.00 0.00 0.00 86 1014.3
20260903085018 79 360 4.3 11.3 0.00 0.00 0.00 86 1014.2
20260903084918 79 360 6.1 11.3 0.00 0.00 0.00 86 1014.3
20260903084819 79 360 6.1 11.3 0.00 0.00 0.00 86 1014.3
20260903084739 79 360 5.2 11.3 0.00 0.00 0.00 86 1014.3
20260903084623 79 360 5.2 11.3 0.00 0.00 0.00 86 1014.3
20260903084543 79 360 5.2 12.2 0.00 0.00 0.00 86 1014.2
20260903084424 79 360 6.1 12.2 0.00 0.00 0.00 86 1014.3
20260903084323 79 360 6.1 12.2 0.00 0.00 0.00 86 1014.2
20260903084245 79 360 5.2 13.9 0.00 0.00 0.00 85 1014.3
20260903084122 79 360 5.2 13.9 0.00 0.00 0.00 85 1014.2
20260903084023 80 360 5.2 13.9 0.00 0.00 0.00 85 1014.3
20260903083943 80 360 6.1 13.9 0.00 0.00 0.00 85 1014.3
20260903083823 80 360 6.1 13.9 0.00 0.00 0.00 85 1014.3
20260903083748 80 360 6.1 13.9 0.00 0.00 0.00 85 1014.2
20260903083628 80 360 7.0 13.9 0.00 0.00 0.00 85 1014.2
20260903083528 80 360 7.0 13.9 0.00 0.00 0.00 85 1014.2
20260903083449 80 360 7.8 13.9 0.00 0.00 0.00 85 1014.2
20260903083329 80 360 7.0 13.9 0.00 0.00 0.00 85 1014.3
20260903083229 80 360 7.0 12.2 0.00 0.00 0.00 85 1014.2
20260903083126 80 360 6.1 12.2 0.00 0.00 0.00 85 1014.3
20260903083026 80 360 7.0 12.2 0.00 0.00 0.00 85 1014.2
20260903082931 80 360 5.2 12.2 0.00 0.00 0.00 85 1014.2
20260903082832 80 360 5.2 12.2 0.00 0.00 0.00 85 1014.2
20260903082752 80 360 4.3 12.2 0.00 0.00 0.00 85 1014.2
20260903082631 80 360 6.1 13.0 0.00 0.00 0.00 85 1014.2
20260903082532 80 360 7.0 13.0 0.00 0.00 0.00 85 1014.2
20260903082432 80 360 7.0 13.0 0.00 0.00 0.00 85 1014.2
20260903082333 80 360 7.0 13.0 0.00 0.00 0.00 85 1014.2
20260903082239 80 360 5.2 13.0 0.00 0.00 0.00 85 1014.2
20260903082116 80 360 5.2 13.9 0.00 0.00 0.00 85 1014.1
20260903082037 80 360 4.3 13.9 0.00 0.00 0.00 85 1014.2
20260903081916 80 360 6.1 13.9 0.00 0.00 0.00 85 1014.2
20260903081837 80 360 6.1 13.9 0.00 0.00 0.00 85 1014.2
20260903081758 80 360 5.2 17.4 0.00 0.00 0.00 85 1014.1
20260903081657 80 360 7.8 17.4 0.00 0.00 0.00 85 1014.1
20260903081554 80 360 8.7 17.4 0.00 0.00 0.00 85 1014.1
20260903081432 80 360 7.8 17.4 0.00 0.00 0.00 85 1014.1
20260903081317 80 360 7.8 17.4 0.00 0.00 0.00 85 1014.2
20260903081218 80 360 7.0 17.4 0.00 0.00 0.00 85 1014.2
20260903081118 80 360 7.0 17.4 0.00 0.00 0.00 84 1014.2
20260903081019 80 360 6.1 17.4 0.00 0.00 0.00 84 1014.2
20260903080918 80 360 7.0 17.4 0.00 0.00 0.00 84 1014.1
20260903080819 80 360 7.8 13.9 0.00 0.00 0.00 84 1014.3
20260903080721 80 360 8.7 13.9 0.00 0.00 0.00 84 1014.2
20260903080624 80 360 7.8 13.9 0.00 0.00 0.00 84 1014.2
20260903080525 80 360 6.1 13.0 0.00 0.00 0.00 84 1014.2
20260903080425 80 360 7.0 13.0 0.00 0.00 0.00 84 1014.2
20260903080325 80 360 6.1 12.2 0.00 0.00 0.00 84 1014.2
20260903080226 80 360 6.1 12.2 0.00 0.00 0.00 84 1014.2
20260903080127 80 360 7.0 12.2 0.00 0.00 0.00 84 1014.2
20260903080027 80 360 6.1 11.3 0.00 0.00 0.00 84 1014.3
20260903075931 80 360 7.0 11.3 0.00 0.00 0.00 84 1014.3
20260903075833 80 360 6.1 11.3 0.00 0.00 0.00 84 1014.2
20260903075732 80 360 6.1 11.3 0.00 0.00 0.00 84 1014.2
20260903075652 80 360 6.1 13.9 0.00 0.00 0.00 84 1014.2
20260903075531 80 360 6.1 19.1 0.00 0.00 0.00 84 1014.3
20260903075430 80 360 5.2 19.1 0.00 0.00 0.00 84 1014.2
20260903075331 80 360 5.2 19.1 0.00 0.00 0.00 84 1014.2
20260903075234 80 360 5.2 19.1 0.00 0.00 0.00 84 1014.2
20260903075135 80 360 6.1 19.1 0.00 0.00 0.00 84 1014.3
20260903075056 80 360 7.8 17.4 0.00 0.00 0.00 84 1014.3
20260903074916 80 360 8.7 17.4 0.00 0.00 0.00 83 1014.3
20260903074836 80 360 9.6 17.4 0.00 0.00 0.00 83 1014.4
20260903074717 80 360 7.8 17.4 0.00 0.00 0.00 83 1014.4
20260903074618 80 360 7.0 17.4 0.00 0.00 0.00 83 1014.4
20260903074521 80 360 7.0 17.4 0.00 0.00 0.00 83 1014.4
20260903074422 80 360 7.0 17.4 0.00 0.00 0.00 83 1014.5
20260903074323 80 360 7.8 17.4 0.00 0.00 0.00 83 1014.4
20260903074243 80 360 7.8 17.4 0.00 0.00 0.00 83 1014.5
20260903074122 80 360 8.7 17.4 0.00 0.00 0.00 83 1014.5
20260903074023 80 360 7.0 17.4 0.00 0.00 0.00 83 1014.5
20260903073924 80 360 6.1 15.6 0.00 0.00 0.00 83 1014.5
20260903073828 80 360 6.1 15.6 0.00 0.00 0.00 83 1014.5
20260903073730 80 360 7.0 15.6 0.00 0.00 0.00 83 1014.5
20260903073630 80 360 8.7 15.6 0.00 0.00 0.00 83 1014.5
20260903073531 80 360 8.7 15.6 0.00 0.00 0.00 83 1014.5
20260903073432 80 360 8.7 15.6 0.00 0.00 0.00 83 1014.5
20260903073333 80 360 7.0 13.0 0.00 0.00 0.00 82 1014.5
20260903073218 80 360 7.0 13.0 0.00 0.00 0.00 82 1014.5
20260903073139 80 360 7.0 13.9 0.00 0.00 0.00 82 1014.5
20260903073020 80 360 7.0 13.9 0.00 0.00 0.00 82 1014.5
20260903072921 80 360 7.8 13.9 0.00 0.00 0.00 82 1014.4
20260903072821 81 360 7.0 13.9 0.00 0.00 0.00 82 1014.5
20260903072721 81 360 6.1 13.9 0.00 0.00 0.00 82 1014.4
20260903072623 81 360 5.2 13.9 0.00 0.00 0.00 82 1014.4
20260903072527 81 178 6.1 13.9 0.00 0.00 0.00 82 1014.4
20260903072447 81 360 5.2 13.9 0.00 0.00 0.00 82 1014.4
20260903072328 81 360 6.1 13.9 0.00 0.00 0.00 81 1014.4
20260903072229 81 360 6.1 14.8 0.00 0.00 0.00 81 1014.4
20260903072129 81 360 5.2 15.6 0.00 0.00 0.00 81 1014.4
20260903072030 81 360 7.0 15.6 0.00 0.00 0.00 81 1014.3
20260903071931 81 360 7.8 15.6 0.00 0.00 0.00 81 1014.4
20260903071836 81 360 7.8 15.6 0.00 0.00 0.00 81 1014.4
20260903071735 81 360 9.6 15.6 0.00 0.00 0.00 81 1014.5
20260903071616 81 360 7.0 13.0 0.00 0.00 0.00 81 1014.4
20260903071518 81 360 7.0 13.0 0.00 0.00 0.00 81 1014.4
20260903071438 81 360 6.1 13.0 0.00 0.00 0.00 81 1014.4
20260903071318 81 360 7.0 13.0 0.00 0.00 0.00 80 1014.4
20260903071219 81 360 7.0 13.0 0.00 0.00 0.00 80 1014.5
20260903071124 81 360 7.0 13.0 0.00 0.00 0.00 80 1014.4
20260903071024 81 360 7.0 13.0 0.00 0.00 0.00 80 1014.4
20260903070923 81 360 7.0 13.0 0.00 0.00 0.00 80 1014.5
20260903070822 81 360 7.0 16.5 0.00 0.00 0.00 80 1014.5
20260903070722 81 360 7.0 16.5 0.00 0.00 0.00 80 1014.5
20260903070623 81 360 7.0 16.5 0.00 0.00 0.00 80 1014.5
20260903070522 81 360 7.0 16.5 0.00 0.00 0.00 80 1014.5
20260903070442 81 360 7.0 16.5 0.00 0.00 0.00 80 1014.5
20260903070402 81 161 7.0 16.5 0.00 0.00 0.00 80 1014.5
20260903070239 81 360 7.8 16.5 0.00 0.00 0.00 79 1014.5
20260903070142 81 360 7.8 16.5 0.00 0.00 0.00 79 1014.5
20260903070039 81 360 7.0 16.5 0.00 0.00 0.00 79 1014.5
20260903065937 81 360 7.0 16.5 0.00 0.00 0.00 79 1014.5
20260903065837 81 360 5.2 13.9 0.00 0.00 0.00 79 1014.5
20260903065735 81 360 5.2 13.9 0.00 0.00 0.00 79 1014.5
20260903065634 81 360 4.3 13.9 0.00 0.00 0.00 79 1014.5
20260903065532 81 360 6.1 13.9 0.00 0.00 0.00 79 1014.5
20260903065453 81 360 6.1 13.9 0.00 0.00 0.00 79 1014.5
20260903065330 81 360 6.1 13.9 0.00 0.00 0.00 79 1014.5
20260903065231 81 360 6.1 13.9 0.00 0.00 0.00 79 1014.5
20260903065116 81 360 6.1 13.0 0.00 0.00 0.00 79 1014.5
20260903065017 81 360 7.0 13.0 0.00 0.00 0.00 78 1014.6
20260903064918 81 360 7.0 13.0 0.00 0.00 0.00 78 1014.5
20260903064819 81 360 7.0 13.0 0.00 0.00 0.00 78 1014.6
20260903064719 81 360 7.0 13.0 0.00 0.00 0.00 78 1014.5
20260903064640 81 360 8.7 13.9 0.00 0.00 0.00 78 1014.5
20260903064538 82 360 8.7 17.4 0.00 0.00 0.00 78 1014.5
20260903064423 82 360 8.7 17.4 0.00 0.00 0.00 78 1014.5
20260903064323 82 360 8.7 17.4 0.00 0.00 0.00 78 1014.6
20260903064224 82 360 7.0 17.4 0.00 0.00 0.00 77 1014.6
20260903064124 82 360 6.1 17.4 0.00 0.00 0.00 77 1014.6
20260903064026 82 360 7.0 17.4 0.00 0.00 0.00 77 1014.6
20260903063925 82 360 8.7 17.4 0.00 0.00 0.00 77 1014.6
20260903063827 82 360 11.3 17.4 0.00 0.00 0.00 77 1014.6
20260903063747 82 360 12.2 17.4 0.00 0.00 0.00 77 1014.6
20260903063631 82 360 10.4 17.4 0.00 0.00 0.00 77 1014.6
20260903063531 82 360 8.7 17.4 0.00 0.00 0.00 77 1014.6
20260903063432 82 360 7.0 15.6 0.00 0.00 0.00 77 1014.6
20260903063333 82 360 7.0 15.6 0.00 0.00 0.00 77 1014.6
20260903063234 82 360 7.8 15.6 0.00 0.00 0.00 77 1014.6
20260903063135 82 360 7.8 15.6 0.00 0.00 0.00 77 1014.6
20260903063020 82 360 8.7 15.6 0.00 0.00 0.00 76 1014.6
20260903062919 82 360 8.7 15.6 0.00 0.00 0.00 76 1014.6
20260903062821 82 360 7.8 15.6 0.00 0.00 0.00 76 1014.6
20260903062721 82 360 8.7 15.6 0.00 0.00 0.00 76 1014.6
20260903062621 82 360 9.6 15.6 0.00 0.00 0.00 76 1014.6
20260903062522 82 360 9.6 15.6 0.00 0.00 0.00 76 1014.6
20260903062421 82 162 9.6 15.6 0.00 0.00 0.00 76 1014.6
20260903062326 82 360 7.8 15.6 0.00 0.00 0.00 76 1014.6
20260903062226 82 360 7.8 15.6 0.00 0.00 0.00 75 1014.6
20260903062128 82 360 7.8 15.6 0.00 0.00 0.00 75 1014.5
20260903062028 82 360 7.0 15.6 0.00 0.00 0.00 75 1014.5
20260903061949 82 360 6.1 15.6 0.00 0.00 0.00 75 1014.5
20260903061828 82 360 6.1 15.6 0.00 0.00 0.00 75 1014.6
20260903061729 82 360 7.0 15.6 0.00 0.00 0.00 75 1014.5
20260903061633 82 360 7.8 15.6 0.00 0.00 0.00 75 1014.4
20260903061553 82 360 8.7 15.6 0.00 0.00 0.00 75 1014.5
20260903061433 82 360 7.8 15.6 0.00 0.00 0.00 75 1014.5
20260903061334 82 360 7.8 15.6 0.00 0.00 0.00 75 1014.5
20260903061234 82 360 7.8 15.6 0.00 0.00 0.00 74 1014.5
20260903061134 82 360 8.7 15.6 0.00 0.00 0.00 74 1014.6
20260903061020 82 360 8.7 20.0 0.00 0.00 0.00 74 1014.5
20260903060921 82 360 9.6 20.0 0.00 0.00 0.00 74 1014.6
20260903060820 83 360 9.6 20.0 0.00 0.00 0.00 74 1014.6
20260903060741 83 360 7.8 20.0 0.00 0.00 0.00 74 1014.6
20260903060618 83 360 7.8 20.0 0.00 0.00 0.00 73 1014.7
20260903060519 83 360 7.0 20.0 0.00 0.00 0.00 73 1014.6
20260903060419 83 360 7.8 20.0 0.00 0.00 0.00 73 1014.5
20260903060320 83 360 8.7 20.0 0.00 0.00 0.00 73 1014.6
20260903060241 83 360 9.6 14.8 0.00 0.00 0.00 73 1014.6
20260903060142 83 360 9.6 14.8 0.00 0.00 0.00 73 1014.7
20260903060034 83 360 9.6 14.8 0.00 0.00 0.00 73 1014.7
20260903055934 83 360 9.6 14.8 0.00 0.00 0.00 73 1014.7
20260903055835 83 360 9.6 14.8 0.00 0.00 0.00 73 1014.7
20260903055735 83 360 9.6 19.1 0.00 0.00 0.00 73 1014.6
20260903055635 83 360 10.4 19.1 0.00 0.00 0.00 72 1014.6
20260903055535 83 360 9.6 19.1 0.00 0.00 0.00 72 1014.6
20260903055419 83 360 9.6 19.1 0.00 0.00 0.00 72 1014.7
20260903055319 83 360 9.6 19.1 0.00 0.00 0.00 73 1014.6
20260903055220 83 360 8.7 19.1 0.00 0.00 0.00 73 1014.6
20260903055119 83 360 8.7 19.1 0.00 0.00 0.00 73 1014.6
20260903055020 83 360 7.8 19.1 0.00 0.00 0.00 73 1014.6
20260903054941 83 192 7.0 19.1 0.00 0.00 0.00 73 1014.6
20260903054821 83 360 7.8 19.1 0.00 0.00 0.00 73 1014.5
20260903054725 83 360 7.0 17.4 0.00 0.00 0.00 73 1014.5
20260903054625 83 360 8.7 17.4 0.00 0.00 0.00 73 1014.5
20260903054525 83 360 9.6 17.4 0.00 0.00 0.00 73 1014.6
20260903054426 83 173 9.6 17.4 0.00 0.00 0.00 73 1014.5
20260903054327 83 360 8.7 18.2 0.00 0.00 0.00 73 1014.6
20260903054227 83 360 8.7 18.2 0.00 0.00 0.00 73 1014.6
20260903054128 83 360 8.7 18.2 0.00 0.00 0.00 73 1014.6
20260903054032 83 360 8.7 18.2 0.00 0.00 0.00 73 1014.6
20260903053933 83 360 9.6 20.0 0.00 0.00 0.00 73 1014.6
20260903053833 83 360 10.4 20.0 0.00 0.00 0.00 73 1014.6
20260903053736 83 360 11.3 20.0 0.00 0.00 0.00 73 1014.5
20260903053656 83 360 13.0 20.0 0.00 0.00 0.00 73 1014.4
20260903053517 83 360 11.3 20.0 0.00 0.00 0.00 73 1014.4
20260903053422 83 360 11.3 20.0 0.00 0.00 0.00 73 1014.4
20260903053322 83 360 10.4 20.0 0.00 0.00 0.00 72 1014.4
20260903053222 83 360 10.4 20.0 0.00 0.00 0.00 72 1014.5
20260903053123 83 360 11.3 21.7 0.00 0.00 0.00 72 1014.5
20260903053024 83 360 11.3 21.7 0.00 0.00 0.00 72 1014.5
20260903052924 83 360 12.2 21.7 0.00 0.00 0.00 72 1014.5
20260903052826 83 360 13.0 21.7 0.00 0.00 0.00 72 1014.5
20260903052728 83 360 13.0 21.7 0.00 0.00 0.00 72 1014.6
20260903052630 83 360 13.9 21.7 0.00 0.00 0.00 71 1014.6
20260903052531 83 360 13.0 21.7 0.00 0.00 0.00 71 1014.5
20260903052452 83 360 12.2 21.7 0.00 0.00 0.00 71 1014.5
20260903052331 83 360 11.3 21.7 0.00 0.00 0.00 71 1014.6
20260903052231 83 360 9.6 20.0 0.00 0.00 0.00 71 1014.5
20260903052116 83 360 11.3 20.0 0.00 0.00 0.00 71 1014.6
20260903052016 84 360 12.2 21.7 0.00 0.00 0.00 71 1014.5
20260903051917 84 360 13.0 21.7 0.00 0.00 0.00 71 1014.6
20260903051818 84 360 12.2 21.7 0.00 0.00 0.00 71 1014.6
20260903051739 84 360 12.2 21.7 0.00 0.00 0.00 71 1014.6
20260903051618 84 360 12.2 21.7 0.00 0.00 0.00 71 1014.5
20260903051519 84 360 13.9 21.7 0.00 0.00 0.00 70 1014.6
20260903051424 84 360 15.6 21.7 0.00 0.00 0.00 70 1014.5
20260903051325 84 360 15.6 21.7 0.00 0.00 0.00 70 1014.5
20260903051225 84 360 14.8 21.7 0.00 0.00 0.00 70 1014.5
20260903051126 84 360 13.0 21.7 0.00 0.00 0.00 70 1014.4
20260903051026 84 360 11.3 20.0 0.00 0.00 0.00 70 1014.5
20260903050927 84 360 11.3 18.2 0.00 0.00 0.00 70 1014.5
20260903050827 84 360 11.3 18.2 0.00 0.00 0.00 69 1014.4
20260903050752 84 360 10.4 18.2 0.00 0.00 0.00 69 1014.4
20260903050632 84 360 11.3 18.2 0.00 0.00 0.00 69 1014.5
20260903050532 84 360 10.4 18.2 0.00 0.00 0.00 69 1014.5
20260903050432 84 360 11.3 18.2 0.00 0.00 0.00 69 1014.5
20260903050335 84 360 10.4 18.2 0.00 0.00 0.00 69 1014.4
20260903050235 84 360 11.3 18.2 0.00 0.00 0.00 68 1014.5
20260903050136 84 360 11.3 18.2 0.00 0.00 0.00 68 1014.5
20260903045953 84 360 11.3 18.2 0.00 0.00 0.00 68 1014.4
20260903045855 84 360 11.3 18.2 0.00 0.00 0.00 68 1014.4
20260903045732 84 360 11.3 20.9 0.00 0.00 0.00 68 1014.5
20260903045632 84 360 11.3 20.9 0.00 0.00 0.00 68 1014.4
20260903045552 84 360 10.4 20.9 0.00 0.00 0.00 67 1014.5
20260903045432 85 360 11.3 20.9 0.00 0.00 0.00 67 1014.4
20260903045333 84 153 11.3 20.9 0.00 0.00 0.00 67 1014.3
20260903045233 85 360 12.2 20.9 0.00 0.00 0.00 67 1014.4
20260903045117 85 360 13.0 20.9 0.00 0.00 0.00 67 1014.5
20260903045018 85 360 13.0 20.9 0.00 0.00 0.00 67 1014.5
20260903044919 85 360 13.9 20.9 0.00 0.00 0.00 67 1014.4
20260903044819 85 360 13.0 19.1 0.00 0.00 0.00 67 1014.4
20260903044720 85 360 12.2 19.1 0.00 0.00 0.00 67 1014.5
20260903044619 85 360 12.2 19.1 0.00 0.00 0.00 67 1014.5
20260903044525 85 360 12.2 19.1 0.00 0.00 0.00 67 1014.3
20260903044426 85 360 12.2 19.1 0.00 0.00 0.00 67 1014.4
20260903044327 85 360 12.2 19.1 0.00 0.00 0.00 67 1014.3
20260903044228 85 360 11.3 19.1 0.00 0.00 0.00 67 1014.4
20260903044129 85 360 10.4 19.1 0.00 0.00 0.00 67 1014.3
20260903044050 85 360 10.4 19.1 0.00 0.00 0.00 67 1014.3
20260903043929 85 360 11.3 19.1 0.00 0.00 0.00 67 1014.3
20260903043834 85 360 10.4 15.6 0.00 0.00 0.00 67 1014.4
20260903043734 85 360 9.6 15.6 0.00 0.00 0.00 67 1014.3
20260903043635 85 360 10.4 15.6 0.00 0.00 0.00 68 1014.3
20260903043516 85 360 10.4 14.8 0.00 0.00 0.00 67 1014.3
20260903043416 85 360 9.6 14.8 0.00 0.00 0.00 67 1014.3
20260903043317 85 360 9.6 14.8 0.00 0.00 0.00 67 1014.3
20260903043218 85 360 8.7 14.8 0.00 0.00 0.00 67 1014.2
20260903043143 85 360 8.7 11.3 0.00 0.00 0.00 67 1014.3
20260903043022 85 360 8.7 11.3 0.00 0.00 0.00 67 1014.3
20260903042942 85 360 7.8 11.3 0.00 0.00 0.00 67 1014.2
20260903042823 85 360 8.7 11.3 0.00 0.00 0.00 67 1014.4
20260903042722 85 360 8.7 12.2 0.00 0.00 0.00 67 1014.3
20260903042623 85 360 8.7 13.0 0.00 0.00 0.00 67 1014.2
20260903042522 85 360 7.8 13.0 0.00 0.00 0.00 67 1014.3
20260903042427 85 360 7.8 13.0 0.00 0.00 0.00 67 1014.2
20260903042328 85 360 8.7 13.0 0.00 0.00 0.00 67 1014.2
20260903042228 85 360 8.7 13.0 0.00 0.00 0.00 67 1014.2
20260903042128 85 360 9.6 13.0 0.00 0.00 0.00 67 1014.2
20260903042029 85 360 8.7 16.5 0.00 0.00 0.00 67 1014.2
20260903041950 85 360 8.7 16.5 0.00 0.00 0.00 67 1014.2
20260903041830 85 360 8.7 16.5 0.00 0.00 0.00 67 1014.1
20260903041735 85 360 8.7 16.5 0.00 0.00 0.00 67 1014.2
20260903041656 85 360 8.7 16.5 0.00 0.00 0.00 67 1014.1
20260903041556 85 360 8.7 16.5 0.00 0.00 0.00 66 1014.2
20260903041455 85 360 9.6 16.5 0.00 0.00 0.00 66 1014.2
20260903041335 85 360 10.4 16.5 0.00 0.00 0.00 66 1014.2
20260903041255 85 360 9.6 16.5 0.00 0.00 0.00 66 1014.2
20260903041135 85 360 9.6 16.5 0.00 0.00 0.00 66 1014.3
20260903041017 85 360 7.8 16.5 0.00 0.00 0.00 66 1014.3
20260903040921 85 360 7.8 16.5 0.00 0.00 0.00 66 1014.2
20260903040822 86 360 8.7 16.5 0.00 0.00 0.00 66 1014.3
20260903040743 86 360 7.8 17.4 0.00 0.00 0.00 65 1014.2
20260903040644 86 360 7.8 17.4 0.00 0.00 0.00 65 1014.2
20260903040524 86 360 8.7 17.4 0.00 0.00 0.00 65 1014.2
20260903040423 86 360 7.8 17.4 0.00 0.00 0.00 65 1014.3
20260903040324 86 360 9.6 17.4 0.00 0.00 0.00 65 1014.2
20260903040225 86 360 9.6 17.4 0.00 0.00 0.00 65 1014.2
20260903040130 86 360 10.4 17.4 0.00 0.00 0.00 65 1014.2
20260903040030 86 360 9.6 17.4 0.00 0.00 0.00 65 1014.2
20260903035930 86 360 8.7 17.4 0.00 0.00 0.00 65 1014.3
20260903035831 86 145 7.8 13.9 0.00 0.00 0.00 64 1014.3
20260903035730 86 360 7.0 13.9 0.00 0.00 0.00 64 1014.2
20260903035631 86 360 7.0 15.6 0.00 0.00 0.00 64 1014.3
20260903035532 86 360 7.8 15.6 0.00 0.00 0.00 64 1014.3
20260903035436 86 360 8.7 15.6 0.00 0.00 0.00 64 1014.2
20260903035357 86 360 7.8 15.6 0.00 0.00 0.00 64 1014.2
20260903035256 86 360 7.8 15.6 0.00 0.00 0.00 64 1014.2
20260903035135 86 360 8.7 15.6 0.00 0.00 0.00 64 1014.2
20260903035035 86 360 7.8 15.6 0.00 0.00 0.00 63 1014.1
20260903034936 86 360 7.8 15.6 0.00 0.00 0.00 63 1014.1
20260903034856 86 360 8.7 15.6 0.00 0.00 0.00 63 1014.1
20260903034735 86 360 8.7 13.0 0.00 0.00 0.00 63 1014.1
20260903034654 87 360 8.7 13.0 0.00 0.00 0.00 63 1014.2
20260903034518 87 360 7.8 14.8 0.00 0.00 0.00 63 1014.2
20260903034418 87 360 7.0 14.8 0.00 0.00 0.00 63 1014.2
20260903034318 87 360 7.0 14.8 0.00 0.00 0.00 62 1014.2
20260903034219 87 360 7.0 14.8 0.00 0.00 0.00 62 1014.2
20260903034118 87 360 6.1 17.4 0.00 0.00 0.00 62 1014.1
20260903034039 87 360 7.0 17.4 0.00 0.00 0.00 62 1014.2
20260903033939 87 360 7.8 17.4 0.00 0.00 0.00 62 1014.1
20260903033818 87 360 8.7 17.4 0.00 0.00 0.00 62 1014.2
20260903033739 87 360 9.6 17.4 0.00 0.00 0.00 61 1014.2
20260903033622 87 360 8.7 17.4 0.00 0.00 0.00 61 1014.1
20260903033524 87 360 7.8 17.4 0.00 0.00 0.00 61 1014.2
20260903033425 87 360 7.8 17.4 0.00 0.00 0.00 61 1014.1
20260903033325 87 360 8.7 17.4 0.00 0.00 0.00 61 1014.1
20260903033226 87 360 9.6 17.4 0.00 0.00 0.00 61 1014.1
20260903033126 87 360 9.6 17.4 0.00 0.00 0.00 61 1014.2
20260903033026 87 360 11.3 16.5 0.00 0.00 0.00 60 1014.2
20260903032951 87 360 10.4 16.5 0.00 0.00 0.00 60 1014.2
20260903032832 87 360 10.4 16.5 0.00 0.00 0.00 60 1014.2
20260903032731 87 360 10.4 16.5 0.00 0.00 0.00 60 1014.3
20260903032631 87 360 9.6 15.6 0.00 0.00 0.00 60 1014.2
20260903032552 87 360 9.6 15.6 0.00 0.00 0.00 60 1014.2
20260903032431 87 360 8.7 13.0 0.00 0.00 0.00 60 1014.2
20260903032333 87 360 7.8 13.0 0.00 0.00 0.00 61 1014.2
20260903032218 87 360 7.0 12.2 0.00 0.00 0.00 61 1014.1
20260903032119 87 360 6.1 11.3 0.00 0.00 0.00 61 1014.2
20260903032019 87 360 5.2 11.3 0.00 0.00 0.00 61 1014.1
20260903031920 87 360 5.2 11.3 0.00 0.00 0.00 61 1014.0
20260903031841 87 360 5.2 10.4 0.00 0.00 0.00 61 1014.0
20260903031721 87 102 5.2 10.4 0.00 0.00 0.00 61 1014.0
20260903031622 87 360 5.2 10.4 0.00 0.00 0.00 61 1013.9
20260903031526 87 360 5.2 9.6 0.00 0.00 0.00 61 1014.0
20260903031445 87 360 4.3 9.6 0.00 0.00 0.00 61 1013.9
20260903031324 87 360 4.3 8.7 0.00 0.00 0.00 61 1013.9
20260903031224 87 360 4.3 7.8 0.00 0.00 0.00 61 1013.8
20260903031145 87 138 4.3 7.0 0.00 0.00 0.00 60 1013.7
20260903031025 87 360 4.3 7.0 0.00 0.00 0.00 61 1013.8
20260903030925 87 360 4.3 7.0 0.00 0.00 0.00 61 1013.7
20260903030826 87 360 4.3 7.0 0.00 0.00 0.00 61 1013.8
20260903030732 87 360 4.3 7.0 0.00 0.00 0.00 61 1013.7
20260903030632 87 360 4.3 7.0 0.00 0.00 0.00 61 1013.7
20260903030532 87 360 4.3 7.0 0.00 0.00 0.00 61 1013.7
20260903030433 87 360 3.5 5.2 0.00 0.00 0.00 61 1013.7
20260903030334 87 360 2.6 4.3 0.00 0.00 0.00 61 1013.7
20260903030255 87 360 2.6 4.3 0.00 0.00 0.00 60 1013.7
20260903030118 87 360 2.6 4.3 0.00 0.00 0.00 60 1013.5
20260903030017 87 360 2.6 4.3 0.00 0.00 0.00 60 1013.5
20260903025938 88 360 2.6 4.3 0.00 0.00 0.00 60 1013.5
20260903025819 88 360 2.6 4.3 0.00 0.00 0.00 60 1013.5
20260903025719 88 360 2.6 4.3 0.00 0.00 0.00 60 1013.4
20260903025619 88 360 2.6 4.3 0.00 0.00 0.00 60 1013.4
20260903025520 88 360 2.6 4.3 0.00 0.00 0.00 60 1013.3
20260903025421 88 360 2.6 4.3 0.00 0.00 0.00 60 1013.4
20260903025346 88 360 1.7 4.3 0.00 0.00 0.00 60 1013.4
20260903025226 88 360 2.6 4.3 0.00 0.00 0.00 60 1013.4
20260903025126 88 360 2.6 4.3 0.00 0.00 0.00 60 1013.4
20260903025025 88 360 2.6 5.2 0.00 0.00 0.00 60 1013.4
20260903024926 88 360 2.6 5.2 0.00 0.00 0.00 60 1013.4
20260903024827 88 360 2.6 5.2 0.00 0.00 0.00 60 1013.4
20260903024727 88 360 2.6 5.2 0.00 0.00 0.00 60 1013.4
20260903024627 88 360 2.6 5.2 0.00 0.00 0.00 60 1013.4
20260903024532 88 360 2.6 5.2 0.00 0.00 0.00 59 1013.3
20260903024431 88 360 3.5 5.2 0.00 0.00 0.00 59 1013.3
20260903024332 88 360 3.5 5.2 0.00 0.00 0.00 59 1013.4
20260903024234 88 360 3.5 5.2 0.00 0.00 0.00 59 1013.4
20260903024135 88 360 3.5 5.2 0.00 0.00 0.00 59 1013.3
20260903024036 88 360 3.5 5.2 0.00 0.00 0.00 59 1013.3
20260903023920 88 360 3.5 5.2 0.00 0.00 0.00 59 1013.3
20260903023843 88 360 3.5 5.2 0.00 0.00 0.00 59 1013.3
20260903023716 88 360 2.6 5.2 0.00 0.00 0.00 59 1013.2
20260903023617 88 360 2.6 5.2 0.00 0.00 0.00 59 1013.2
20260903023518 88 360 2.6 7.0 0.00 0.00 0.00 59 1013.2
20260903023418 88 360 2.6 7.0 0.00 0.00 0.00 59 1013.2
20260903023339 88 360 2.6 7.0 0.00 0.00 0.00 59 1013.2
20260903023222 88 360 2.6 7.0 0.00 0.00 0.00 59 1013.2
20260903023123 88 360 2.6 7.0 0.00 0.00 0.00 59 1013.2
20260903023044 88 360 2.6 7.0 0.00 0.00 0.00 59 1013.2
20260903022924 88 143 3.5 7.0 0.00 0.00 0.00 59 1013.1
20260903022826 88 144 3.5 7.0 0.00 0.00 0.00 59 1013.2
20260903022726 88 360 3.5 7.8 0.00 0.00 0.00 59 1013.2
20260903022627 88 360 3.5 7.8 0.00 0.00 0.00 59 1013.2
20260903022532 88 360 2.6 7.8 0.00 0.00 0.00 59 1013.2
20260903022432 88 360 1.7 7.8 0.00 0.00 0.00 59 1013.1
20260903022334 88 360 1.7 7.8 0.00 0.00 0.00 60 1013.0
20260903022234 88 360 1.7 7.8 0.00 0.00 0.00 60 1013.0
20260903022134 88 360 2.6 7.8 0.00 0.00 0.00 60 1012.9
20260903022035 88 360 3.5 7.8 0.00 0.00 0.00 60 1013.0
20260903021920 88 360 4.3 7.8 0.00 0.00 0.00 59 1012.9
20260903021820 88 360 4.3 7.8 0.00 0.00 0.00 59 1013.0
20260903021721 88 360 4.3 7.0 0.00 0.00 0.00 59 1012.9
20260903021642 88 360 4.3 7.0 0.00 0.00 0.00 58 1012.9
20260903021516 89 360 3.5 4.3 0.00 0.00 0.00 58 1012.9
20260903021416 89 360 2.6 4.3 0.00 0.00 0.00 58 1012.9
20260903021316 89 360 1.7 2.6 0.00 0.00 0.00 57 1012.7
20260903021242 89 360 1.7 2.6 0.00 0.00 0.00 57 1012.7
20260903021116 89 360 0.9 2.6 0.00 0.00 0.00 57 1012.7
20260903021016 89 360 1.7 2.6 0.00 0.00 0.00 57 1012.7
20260903020917 89 360 1.7 2.6 0.00 0.00 0.00 57 1012.6
20260903020816 89 360 1.7 2.6 0.00 0.00 0.00 57 1012.6
20260903020717 89 360 1.7 2.6 0.00 0.00 0.00 56 1012.6
20260903020638 89 360 1.7 2.6 0.00 0.00 0.00 56 1012.6
20260903020522 89 360 1.7 2.6 0.00 0.00 0.00 56 1012.6
20260903020423 89 113 1.7 2.6 0.00 0.00 0.00 56 1012.6
20260903020324 89 360 1.7 2.6 0.00 0.00 0.00 56 1012.6
20260903020225 89 360 1.7 2.6 0.00 0.00 0.00 56 1012.6
20260903020146 90 360 1.7 2.6 0.00 0.00 0.00 56 1012.6
20260903020024 90 360 1.7 2.6 0.00 0.00 0.00 56 1012.6
20260903015924 90 360 1.7 2.6 0.00 0.00 0.00 56 1012.6
20260903015825 90 360 1.7 2.6 0.00 0.00 0.00 56 1012.5
20260903015728 90 360 1.7 2.6 0.00 0.00 0.00 56 1012.6
20260903015630 90 360 0.9 1.7 0.00 0.00 0.00 56 1012.6
20260903015531 90 360 0.9 1.7 0.00 0.00 0.00 56 1012.5
20260903015432 90 360 0.0 1.7 0.00 0.00 0.00 56 1012.6
20260903015334 90 115 0.0 1.7 0.00 0.00 0.00 56 1012.5
20260903015235 90 360 0.9 1.7 0.00 0.00 0.00 55 1012.5
20260903015119 90 360 0.9 2.6 0.00 0.00 0.00 55 1012.6
20260903015020 90 360 0.9 2.6 0.00 0.00 0.00 55 1012.5
20260903014921 90 114 0.9 2.6 0.00 0.00 0.00 55 1012.5
20260903014841 90 114 0.9 2.6 0.00 0.00 0.00 55 1012.5
20260903014740 90 360 0.9 2.6 0.00 0.00 0.00 55 1012.5
20260903014620 90 114 1.7 2.6 0.00 0.00 0.00 55 1012.5
20260903014519 90 360 1.7 2.6 0.00 0.00 0.00 55 1012.4
20260903014439 90 114 1.7 2.6 0.00 0.00 0.00 54 1012.5
20260903014318 90 360 1.7 2.6 0.00 0.00 0.00 55 1012.4
20260903014223 90 360 0.9 2.6 0.00 0.00 0.00 55 1012.4
20260903014125 90 360 1.7 3.5 0.00 0.00 0.00 55 1012.5
20260903014026 90 360 1.7 3.5 0.00 0.00 0.00 55 1012.4
20260903013927 90 360 1.7 3.5 0.00 0.00 0.00 54 1012.4
20260903013826 90 360 1.7 3.5 0.00 0.00 0.00 54 1012.3
20260903013727 90 360 1.7 3.5 0.00 0.00 0.00 54 1012.3
20260903013648 90 360 1.7 3.5 0.00 0.00 0.00 54 1012.4
20260903013532 90 360 1.7 3.5 0.00 0.00 0.00 54 1012.3
20260903013431 90 360 1.7 3.5 0.00 0.00 0.00 54 1012.3
20260903013351 90 360 1.7 4.3 0.00 0.00 0.00 54 1012.4
20260903013251 90 360 1.7 4.3 0.00 0.00 0.00 54 1012.3
20260903013130 90 360 1.7 4.3 0.00 0.00 0.00 55 1012.3
20260903013031 91 360 1.7 4.3 0.00 0.00 0.00 55 1012.4
20260903012931 91 360 1.7 4.3 0.00 0.00 0.00 54 1012.3
20260903012853 91 360 2.6 4.3 0.00 0.00 0.00 55 1012.3
20260903012735 91 360 2.6 4.3 0.00 0.00 0.00 54 1012.3
20260903012636 91 360 2.6 4.3 0.00 0.00 0.00 55 1012.3
20260903012557 91 360 2.6 4.3 0.00 0.00 0.00 54 1012.3
20260903012435 91 360 1.7 3.5 0.00 0.00 0.00 55 1012.4
20260903012317 91 360 1.7 3.5 0.00 0.00 0.00 55 1012.3
20260903012238 91 360 2.6 3.5 0.00 0.00 0.00 54 1012.3
20260903012118 91 360 2.6 3.5 0.00 0.00 0.00 54 1012.3
20260903012018 91 360 2.6 3.5 0.00 0.00 0.00 54 1012.3
20260903011922 91 360 2.6 3.5 0.00 0.00 0.00 54 1012.4
20260903011823 91 360 1.7 3.5 0.00 0.00 0.00 54 1012.3
20260903011724 91 360 1.7 3.5 0.00 0.00 0.00 54 1012.3
20260903011624 91 360 1.7 3.5 0.00 0.00 0.00 54 1012.4
20260903011525 91 360 1.7 3.5 0.00 0.00 0.00 53 1012.3
20260903011425 91 360 2.6 4.3 0.00 0.00 0.00 53 1012.3
20260903011325 91 109 2.6 4.3 0.00 0.00 0.00 53 1012.3
20260903011230 92 360 2.6 5.2 0.00 0.00 0.00 53 1012.3
20260903011130 92 360 2.6 7.0 0.00 0.00 0.00 53 1012.4
20260903011050 92 360 2.6 7.0 0.00 0.00 0.00 53 1012.3
20260903010931 92 360 2.6 7.0 0.00 0.00 0.00 53 1012.4
20260903010850 92 360 2.6 7.0 0.00 0.00 0.00 53 1012.3
20260903010729 92 360 3.5 7.8 0.00 0.00 0.00 52 1012.4
20260903010630 92 360 3.5 7.8 0.00 0.00 0.00 52 1012.4
20260903010529 92 360 3.5 7.8 0.00 0.00 0.00 52 1012.3
20260903010434 92 360 4.3 7.8 0.00 0.00 0.00 51 1012.3
20260903010334 93 360 4.3 7.8 0.00 0.00 0.00 51 1012.3
20260903010234 93 360 4.3 7.8 0.00 0.00 0.00 51 1012.4
20260903010155 93 360 3.5 7.8 0.00 0.00 0.00 51 1012.3
20260903010035 93 360 2.6 7.8 0.00 0.00 0.00 51 1012.3
20260903005935 94 360 0.9 7.8 0.00 0.00 0.00 55 1012.3
20260903005835 94 360 0.0 0.9 0.00 0.00 0.00 54 1012.2
20260903005719 94 360 0.0 0.0 0.00 0.00 0.00 54 1012.3
20260903005621 94 360 0.0 0.0 0.00 0.00 0.00 53 1012.2
20260903005522 94 360 0.0 0.0 0.00 0.00 0.00 53 1012.2
20260903005423 95 360 0.0 0.0 0.00 0.00 0.00 53 1012.1
20260903005343 95 360 0.0 0.0 0.00 0.00 0.00 51 1012.2
20260903005306 95 360 0.0 0.0 0.00 0.00 0.00 51 1012.1
20260903005116 95 360 0.0 0.0 0.00 0.00 0.00 52 1012.1
20260903005020 95 360 0.0 0.0 0.00 0.00 0.00 50 1012.1
20260903004920 95 360 0.0 0.0 0.00 0.00 0.00 50 1012.1
20260903004821 95 360 0.0 0.0 0.00 0.00 0.00 50 1012.2
20260903004721 95 360 0.0 0.0 0.00 0.00 0.00 50 1012.2
20260903004622 95 360 0.0 0.0 0.00 0.00 0.00 50 1012.2
20260903004523 95 360 0.0 0.0 0.00 0.00 0.00 51 1012.3
20260903004423 95 360 0.0 0.0 0.00 0.00 0.00 50 1012.3
20260903004328 95 360 0.0 0.0 0.00 0.00 0.00 50 1012.3
20260903004249 95 360 0.0 0.0 0.00 0.00 0.00 50 1012.2
20260903004127 95 360 0.0 0.0 0.00 0.00 0.00 51 1012.3
20260903004028 95 360 0.0 0.0 0.00 0.00 0.00 51 1012.3
20260903003929 95 360 0.0 0.0 0.00 0.00 0.00 51 1012.2
20260903003830 95 360 0.0 0.0 0.00 0.00 0.00 50 1012.3
20260903003730 95 360 0.0 0.0 0.00 0.00 0.00 50 1012.3
20260903003630 95 360 0.0 0.0 0.00 0.00 0.00 49 1012.3
20260903003535 95 360 0.0 0.0 0.00 0.00 0.00 48 1012.2
20260903003417 96 360 0.0 0.0 0.00 0.00 0.00 48 1012.3
20260903003338 96 360 0.0 0.0 0.00 0.00 0.00 48 1012.3
20260903003237 96 360 0.0 0.0 0.00 0.00 0.00 48 1012.3
20260903003137 96 360 0.0 0.0 0.00 0.00 0.00 48 1012.3
20260903003034 96 360 0.0 0.0 0.00 0.00 0.00 48 1012.2
20260903002935 96 360 0.0 0.0 0.00 0.00 0.00 49 1012.3
20260903002820 96 360 0.0 0.0 0.00 0.00 0.00 48 1012.3
20260903002720 96 360 0.0 0.0 0.00 0.00 0.00 47 1012.3
20260903002621 96 360 0.0 0.9 0.00 0.00 0.00 47 1012.3
20260903002521 96 360 0.0 0.9 0.00 0.00 0.00 47 1012.2
20260903002421 96 360 0.0 0.9 0.00 0.00 0.00 48 1012.1
20260903002342 96 360 0.0 0.9 0.00 0.00 0.00 47 1012.2
20260903002216 96 360 0.0 0.9 0.00 0.00 0.00 46 1012.3
20260903002121 96 360 0.0 1.7 0.00 0.00 0.00 46 1012.2
20260903002022 96 360 0.0 1.7 0.00 0.00 0.00 46 1012.1
20260903001943 96 360 0.0 1.7 0.00 0.00 0.00 46 1012.2
20260903001904 96 360 0.0 1.7 0.00 0.00 0.00 46 1012.3
20260903001716 96 360 0.9 1.7 0.00 0.00 0.00 46 1012.2
20260903001616 96 360 0.9 1.7 0.00 0.00 0.00 46 1012.2
20260903001516 96 360 0.9 1.7 0.00 0.00 0.00 46 1012.2
20260903001421 96 360 0.9 2.6 0.00 0.00 0.00 46 1012.2
20260903001322 96 360 0.9 2.6 0.00 0.00 0.00 46 1012.2
20260903001223 97 360 0.9 2.6 0.00 0.00 0.00 46 1012.3
20260903001124 96 360 0.9 2.6 0.00 0.00 0.00 46 1012.2
20260903001024 97 360 0.9 3.5 0.00 0.00 0.00 45 1012.2
20260903000926 96 360 0.9 3.5 0.00 0.00 0.00 45 1012.2
20260903000825 97 360 0.9 3.5 0.00 0.00 0.00 44 1012.2
20260903000731 97 360 1.7 3.5 0.00 0.00 0.00 44 1012.3
20260903000632 97 360 1.7 3.5 0.00 0.00 0.00 44 1012.2
20260903000532 97 360 1.7 3.5 0.00 0.00 0.00 44 1012.2
20260903000433 97 360 1.7 3.5 0.00 0.00 0.00 44 1012.1
20260903000355 97 360 2.6 3.5 0.00 0.00 0.00 44 1012.2
20260903000251 97 360 2.6 3.5 0.00 0.00 0.00 45 1012.1
20260903000132 97 360 2.6 3.5 0.00 0.00 0.00 44 1012.2
20260903000017 97 360 2.6 3.5 0.00 0.00 0.00 44 1012.1
20260902235916 97 360 1.7 3.5 0.00 0.00 0.00 45 1012.2
20260902235818 97 360 0.9 3.5 0.00 0.00 0.00 45 1012.1
20260902235718 97 360 0.9 2.6 0.00 0.00 0.00 45 1012.2
20260902235639 97 360 0.9 2.6 0.00 0.00 0.00 45 1012.2
20260902235518 97 360 0.9 2.6 0.00 0.00 0.00 45 1012.3
20260902235419 97 360 1.7 2.6 0.00 0.00 0.00 45 1012.3
20260902235322 97 360 0.9 2.6 0.00 0.00 0.00 45 1012.3
20260902235222 97 360 1.7 3.5 0.00 0.00 0.00 45 1012.3
20260902235123 97 360 1.7 3.5 0.00 0.00 0.00 45 1012.3
20260902235024 97 360 1.7 3.5 0.00 0.00 0.00 45 1012.3
20260902234924 97 360 1.7 4.3 0.00 0.00 0.00 45 1012.3
20260902234825 97 360 1.7 4.3 0.00 0.00 0.00 45 1012.2
20260902234725 97 360 1.7 4.3 0.00 0.00 0.00 46 1012.3
20260902234629 97 360 1.7 4.3 0.00 0.00 0.00 45 1012.3
20260902234530 97 360 1.7 4.3 0.00 0.00 0.00 45 1012.1
20260902234451 97 360 1.7 7.0 0.00 0.00 0.00 45 1012.1
20260902234329 97 360 2.6 7.0 0.00 0.00 0.00 45 1012.2
20260902234227 97 360 2.6 7.0 0.00 0.00 0.00 45 1012.1
20260902234126 97 360 2.6 7.0 0.00 0.00 0.00 45 1012.2
20260902234026 97 360 3.5 7.0 0.00 0.00 0.00 44 1012.1
20260902233930 97 360 3.5 7.0 0.00 0.00 0.00 44 1012.3
20260902233851 97 360 4.3 7.0 0.00 0.00 0.00 45 1012.2
20260902233730 97 360 3.5 7.0 0.00 0.00 0.00 45 1012.2
20260902233630 97 360 3.5 7.0 0.00 0.00 0.00 45 1012.3
20260902233530 97 360 2.6 4.3 0.00 0.00 0.00 45 1012.3
20260902233432 97 360 2.6 4.3 0.00 0.00 0.00 45 1012.2
20260902233332 97 360 2.6 4.3 0.00 0.00 0.00 44 1012.2
20260902233217 97 360 2.6 4.3 0.00 0.00 0.00 45 1012.3
20260902233117 97 360 2.6 4.3 0.00 0.00 0.00 44 1012.3
20260902233017 97 360 2.6 5.2 0.00 0.00 0.00 44 1012.3
20260902232918 97 360 2.6 5.2 0.00 0.00 0.00 45 1012.2
20260902232820 97 360 3.5 5.2 0.00 0.00 0.00 45 1012.3
20260902232718 97 360 3.5 5.2 0.00 0.00 0.00 44 1012.3
20260902232618 97 360 3.5 5.2 0.00 0.00 0.00 44 1012.4
20260902232524 97 360 3.5 5.2 0.00 0.00 0.00 44 1012.3
20260902232424 98 360 2.6 5.2 0.00 0.00 0.00 43 1012.4
20260902232325 98 360 1.7 5.2 0.00 0.00 0.00 43 1012.4
20260902232226 98 360 0.9 5.2 0.00 0.00 0.00 43 1012.4
20260902232126 98 360 0.9 3.5 0.00 0.00 0.00 43 1012.4
20260902232048 98 360 1.7 3.5 0.00 0.00 0.00 43 1012.3
20260902231927 98 360 1.7 3.5 0.00 0.00 0.00 43 1012.3
20260902231852 98 360 1.7 3.5 0.00 0.00 0.00 44 1012.4
20260902231731 98 360 0.9 4.3 0.00 0.00 0.00 43 1012.4
20260902231632 98 360 0.9 4.3 0.00 0.00 0.00 44 1012.3
20260902231533 98 360 0.9 4.3 0.00 0.00 0.00 44 1012.3
20260902231453 98 360 0.9 5.2 0.00 0.00 0.00 43 1012.3
20260902231333 98 360 0.9 5.2 0.00 0.00 0.00 43 1012.3
20260902231234 98 360 0.9 5.2 0.00 0.00 0.00 43 1012.3
20260902231118 97 360 1.7 5.2 0.00 0.00 0.00 43 1012.3
20260902231018 97 360 1.7 5.2 0.00 0.00 0.00 43 1012.3
20260902230919 97 360 1.7 5.2 0.00 0.00 0.00 44 1012.3
20260902230820 97 360 2.6 5.2 0.00 0.00 0.00 44 1012.3
20260902230720 97 360 2.6 5.2 0.00 0.00 0.00 44 1012.3
20260902230621 97 360 2.6 5.2 0.00 0.00 0.00 44 1012.2
20260902230526 97 360 2.6 5.2 0.00 0.00 0.00 44 1012.2
20260902230426 97 360 3.5 5.2 0.00 0.00 0.00 44 1012.3
20260902230327 97 360 3.5 5.2 0.00 0.00 0.00 44 1012.3
20260902230228 97 360 3.5 5.2 0.00 0.00 0.00 44 1012.3
20260902230128 97 360 2.6 7.0 0.00 0.00 0.00 43 1012.3
20260902230050 97 360 1.7 7.0 0.00 0.00 0.00 46 1012.3
20260902225929 97 360 0.9 7.0 0.00 0.00 0.00 46 1012.3
20260902225835 97 360 1.7 7.0 0.00 0.00 0.00 46 1012.3
20260902225735 97 360 1.7 7.0 0.00 0.00 0.00 45 1012.3
20260902225655 97 360 1.7 7.0 0.00 0.00 0.00 45 1012.2
20260902225535 97 360 1.7 7.0 0.00 0.00 0.00 46 1012.2
20260902225435 97 360 2.6 7.0 0.00 0.00 0.00 46 1012.3
20260902225335 97 360 3.5 7.0 0.00 0.00 0.00 46 1012.2
20260902225238 97 360 3.5 8.7 0.00 0.00 0.00 48 1012.2
20260902225137 96 360 2.6 8.7 0.00 0.00 0.00 46 1012.2
20260902225021 96 360 2.6 8.7 0.00 0.00 0.00 47 1012.3
20260902224921 96 360 2.6 8.7 0.00 0.00 0.00 47 1012.2
20260902224821 96 360 2.6 8.7 0.00 0.00 0.00 47 1012.3
20260902224722 96 360 3.5 8.7 0.00 0.00 0.00 46 1012.3
20260902224622 96 360 4.3 8.7 0.00 0.00 0.00 46 1012.3
20260902224523 96 360 3.5 8.7 0.00 0.00 0.00 47 1012.3
20260902224422 96 360 4.3 8.7 0.00 0.00 0.00 47 1012.3
20260902224328 96 360 3.5 7.0 0.00 0.00 0.00 47 1012.3
20260902224228 96 360 2.6 7.0 0.00 0.00 0.00 46 1012.3
20260902224128 96 360 2.6 7.0 0.00 0.00 0.00 47 1012.4
20260902224029 97 360 1.7 7.0 0.00 0.00 0.00 47 1012.3
20260902223931 97 360 2.6 7.0 0.00 0.00 0.00 47 1012.3
20260902223852 97 360 2.6 7.0 0.00 0.00 0.00 47 1012.3
20260902223732 97 360 1.7 7.8 0.00 0.00 0.00 46 1012.3
20260902223616 97 360 1.7 7.8 0.00 0.00 0.00 47 1012.3
20260902223517 96 360 1.7 7.8 0.00 0.00 0.00 47 1012.3
20260902223418 96 360 1.7 7.8 0.00 0.00 0.00 47 1012.3
20260902223339 96 360 2.6 7.8 0.00 0.00 0.00 47 1012.3
20260902223239 96 360 2.6 7.8 0.00 0.00 0.00 47 1012.3
20260902223118 96 360 2.6 7.8 0.00 0.00 0.00 47 1012.3
20260902223018 96 360 2.6 7.8 0.00 0.00 0.00 47 1012.3
20260902222923 96 360 2.6 7.8 0.00 0.00 0.00 47 1012.3
20260902222824 96 360 2.6 7.8 0.00 0.00 0.00 47 1012.3
20260902222724 96 360 2.6 7.8 0.00 0.00 0.00 47 1012.3
20260902222624 96 360 2.6 7.8 0.00 0.00 0.00 47 1012.3
20260902222546 96 360 2.6 7.8 0.00 0.00 0.00 47 1012.4
20260902222446 96 360 2.6 7.8 0.00 0.00 0.00 47 1012.4
20260902222325 97 360 2.6 7.8 0.00 0.00 0.00 46 1012.3
20260902222230 97 360 2.6 7.8 0.00 0.00 0.00 45 1012.4
20260902222131 97 360 2.6 5.2 0.00 0.00 0.00 46 1012.4
20260902222031 97 360 1.7 5.2 0.00 0.00 0.00 46 1012.4
20260902221932 97 360 2.6 7.0 0.00 0.00 0.00 46 1012.4
20260902221831 97 360 2.6 7.0 0.00 0.00 0.00 46 1012.3
20260902221732 97 360 2.6 7.0 0.00 0.00 0.00 46 1012.4
20260902221616 97 360 3.5 7.8 0.00 0.00 0.00 46 1012.4
20260902221517 97 360 3.5 7.8 0.00 0.00 0.00 45 1012.4
20260902221418 98 360 3.5 7.8 0.00 0.00 0.00 45 1012.4
20260902221318 98 360 4.3 7.8 0.00 0.00 0.00 45 1012.4
20260902221219 98 360 3.5 7.8 0.00 0.00 0.00 45 1012.3
20260902221119 98 360 2.6 7.8 0.00 0.00 0.00 45 1012.4
20260902221040 98 360 2.6 7.8 0.00 0.00 0.00 44 1012.4
20260902220921 98 360 3.5 7.8 0.00 0.00 0.00 44 1012.4
20260902220843 98 360 4.3 7.8 0.00 0.00 0.00 45 1012.4
20260902220716 98 360 2.6 7.0 0.00 0.00 0.00 45 1012.4
20260902220616 97 360 2.6 7.0 0.00 0.00 0.00 45 1012.5
20260902220535 97 360 1.7 5.2 0.00 0.00 0.00 45 1012.4
20260902220416 97 360 2.6 7.0 0.00 0.00 0.00 45 1012.5
20260902220316 97 360 3.5 7.0 0.00 0.00 0.00 45 1012.5
20260902220220 97 360 3.5 7.0 0.00 0.00 0.00 45 1012.5
20260902220141 97 360 3.5 7.0 0.00 0.00 0.00 46 1012.5
20260902220020 97 360 3.5 7.8 0.00 0.00 0.00 46 1012.6
20260902215922 97 360 2.6 7.8 0.00 0.00 0.00 47 1012.5
20260902215843 97 360 2.6 7.8 0.00 0.00 0.00 47 1012.5
20260902215716 97 360 1.7 7.8 0.00 0.00 0.00 47 1012.5
20260902215637 97 360 1.7 7.8 0.00 0.00 0.00 47 1012.5
20260902215513 96 360 2.6 7.8 0.00 0.00 0.00 47 1012.5
20260902215418 96 360 2.6 7.8 0.00 0.00 0.00 47 1012.6
20260902215320 96 360 3.5 7.8 0.00 0.00 0.00 47 1012.5
20260902215229 96 360 3.5 7.8 0.00 0.00 0.00 47 1012.5
20260902215132 96 360 2.6 7.8 0.00 0.00 0.00 47 1012.6
20260902215014 97 360 2.6 7.8 0.00 0.00 0.00 47 1012.5
20260902214921 97 360 2.6 7.8 0.00 0.00 0.00 47 1012.6
20260902214851 97 360 2.6 7.8 0.00 0.00 0.00 47 1012.5
20260902214733 97 360 3.5 7.8 0.00 0.00 0.00 47 1012.6
20260902214622 97 360 4.3 7.8 0.00 0.00 0.00 47 1012.6
20260902214524 97 360 3.5 7.8 0.00 0.00 0.00 47 1012.7
20260902214427 97 360 2.6 7.0 0.00 0.00 0.00 47 1012.6
20260902214330 97 360 3.5 7.0 0.00 0.00 0.00 47 1012.7
20260902214217 97 360 3.5 7.0 0.00 0.00 0.00 48 1012.6
20260902214126 97 360 3.5 7.0 0.00 0.00 0.00 47 1012.7
20260902214049 97 360 2.6 7.0 0.00 0.00 0.00 47 1012.7
20260902213938 97 360 3.5 7.0 0.00 0.00 0.00 46 1012.7
20260902213821 97 360 2.6 7.0 0.00 0.00 0.00 46 1012.7
20260902213723 97 360 1.7 7.0 0.00 0.00 0.00 46 1012.7
20260902213631 97 360 0.9 5.2 0.00 0.00 0.00 45 1012.7
20260902213540 97 360 1.7 5.2 0.00 0.00 0.00 45 1012.7
20260902213422 97 360 2.6 5.2 0.00 0.00 0.00 45 1012.7
20260902213325 97 360 3.5 5.2 0.00 0.00 0.00 45 1012.6
20260902213214 97 360 2.6 7.0 0.00 0.00 0.00 44 1012.7
20260902213115 98 360 1.7 7.0 0.00 0.00 0.00 45 1012.7
20260902213017 98 360 0.9 7.0 0.00 0.00 0.00 46 1012.7
20260902212951 98 360 0.9 7.0 0.00 0.00 0.00 46 1012.7
20260902212834 98 360 1.7 7.0 0.00 0.00 0.00 46 1012.7
20260902212742 98 360 1.7 7.0 0.00 0.00 0.00 45 1012.8
20260902212624 98 360 2.6 7.0 0.00 0.00 0.00 45 1012.8
20260902212554 98 360 3.5 7.0 0.00 0.00 0.00 45 1012.8
20260902212435 98 360 2.6 5.2 0.00 0.00 0.00 45 1012.8
20260902212317 98 360 2.6 4.3 0.00 0.00 0.00 45 1012.9
20260902212231 98 360 1.7 4.3 0.00 0.00 0.00 45 1012.8
20260902212133 98 360 1.7 4.3 0.00 0.00 0.00 44 1012.8
20260902212016 97 360 1.7 4.3 0.00 0.00 0.00 46 1012.8
20260902211926 97 360 2.6 4.3 0.00 0.00 0.00 46 1012.8
20260902211829 97 360 2.6 4.3 0.00 0.00 0.00 46 1012.8
20260902211732 97 360 2.6 4.3 0.00 0.00 0.00 46 1012.8
20260902211634 97 360 1.7 3.5 0.00 0.00 0.00 46 1012.8
20260902211527 97 360 1.7 3.5 0.00 0.00 0.00 46 1012.8
20260902211430 97 360 0.9 3.5 0.00 0.00 0.00 46 1012.9
20260902211333 97 360 0.9 3.5 0.00 0.00 0.00 46 1012.9
20260902211216 97 360 1.7 5.2 0.00 0.00 0.00 46 1012.8
20260902211125 97 360 1.7 5.2 0.00 0.00 0.00 46 1012.9
20260902211027 97 360 1.7 5.2 0.00 0.00 0.00 46 1012.9
20260902210940 96 360 1.7 5.2 0.00 0.00 0.00 46 1012.9
20260902210841 96 360 2.6 5.2 0.00 0.00 0.00 47 1012.9
20260902210749 96 360 2.6 5.2 0.00 0.00 0.00 46 1012.9
20260902210651 96 360 2.6 5.2 0.00 0.00 0.00 46 1012.9
20260902210513 96 360 3.5 5.2 0.00 0.00 0.00 46 1012.9
20260902210443 96 360 3.5 5.2 0.00 0.00 0.00 47 1012.9
20260902210326 96 360 3.5 5.2 0.00 0.00 0.00 46 1012.9
20260902210235 96 360 3.5 5.2 0.00 0.00 0.00 46 1012.9
20260902210122 96 360 3.5 7.0 0.00 0.00 0.00 46 1012.9
20260902210024 96 360 3.5 7.0 0.00 0.00 0.00 46 1013.0
20260902205926 96 360 3.5 7.0 0.00 0.00 0.00 46 1013.0
20260902205837 96 360 3.5 7.0 0.00 0.00 0.00 46 1013.0
20260902205719 97 360 3.5 7.0 0.00 0.00 0.00 46 1013.0
20260902205624 96 360 3.5 7.0 0.00 0.00 0.00 46 1013.1
20260902205554 96 360 3.5 7.0 0.00 0.00 0.00 46 1013.1
20260902205415 96 360 3.5 7.0 0.00 0.00 0.00 47 1013.1
20260902205318 96 360 3.5 7.0 0.00 0.00 0.00 46 1013.1
20260902205228 97 360 3.5 7.0 0.00 0.00 0.00 46 1013.1
20260902205130 97 360 3.5 7.0 0.00 0.00 0.00 46 1013.1
20260902205033 97 360 3.5 7.0 0.00 0.00 0.00 46 1013.1
20260902204919 97 360 2.6 5.2 0.00 0.00 0.00 46 1013.2
20260902204850 97 360 1.7 4.3 0.00 0.00 0.00 45 1013.2
20260902204738 97 360 0.9 4.3 0.00 0.00 0.00 45 1013.2
20260902204619 97 360 1.7 5.2 0.00 0.00 0.00 45 1013.2
20260902204522 97 360 1.7 5.2 0.00 0.00 0.00 45 1013.3
20260902204452 97 360 1.7 5.2 0.00 0.00 0.00 45 1013.2
20260902204314 97 360 2.6 5.2 0.00 0.00 0.00 46 1013.2
20260902204221 97 360 1.7 5.2 0.00 0.00 0.00 46 1013.3
20260902204131 97 360 1.7 5.2 0.00 0.00 0.00 46 1013.2
20260902204033 97 360 1.7 5.2 0.00 0.00 0.00 46 1013.2
20260902203916 97 360 1.7 5.2 0.00 0.00 0.00 46 1013.3
20260902203819 97 360 1.7 5.2 0.00 0.00 0.00 47 1013.3
20260902203722 97 360 1.7 4.3 0.00 0.00 0.00 49 1013.2
20260902203635 97 360 0.9 4.3 0.00 0.00 0.00 47 1013.3
20260902203538 96 360 0.9 4.3 0.00 0.00 0.00 46 1013.3
20260902203420 96 360 0.9 4.3 0.00 0.00 0.00 46 1013.3
20260902203330 96 360 1.7 4.3 0.00 0.00 0.00 46 1013.3
20260902203232 96 360 1.7 4.3 0.00 0.00 0.00 46 1013.3
20260902203115 97 360 2.6 5.2 0.00 0.00 0.00 46 1013.3
20260902203022 97 360 1.7 5.2 0.00 0.00 0.00 46 1013.3
20260902202932 97 360 1.7 5.2 0.00 0.00 0.00 46 1013.4
20260902202815 97 360 0.9 5.2 0.00 0.00 0.00 46 1013.4
20260902202717 96 360 0.9 5.2 0.00 0.00 0.00 47 1013.4
20260902202620 96 360 1.7 5.2 0.00 0.00 0.00 47 1013.4
20260902202530 96 360 2.6 5.2 0.00 0.00 0.00 47 1013.4
20260902202437 96 360 3.5 5.2 0.00 0.00 0.00 46 1013.4
20260902202318 96 360 3.5 5.2 0.00 0.00 0.00 46 1013.4
20260902202229 96 360 2.6 5.2 0.00 0.00 0.00 46 1013.4
20260902202131 97 360 3.5 7.8 0.00 0.00 0.00 45 1013.4
20260902202014 97 360 2.6 7.8 0.00 0.00 0.00 46 1013.5
20260902201917 97 360 2.6 7.8 0.00 0.00 0.00 46 1013.5
20260902201833 97 360 1.7 7.8 0.00 0.00 0.00 45 1013.5
20260902201735 97 360 0.9 7.8 0.00 0.00 0.00 45 1013.5
20260902201617 97 360 2.6 7.8 0.00 0.00 0.00 45 1013.5
20260902201520 97 360 3.5 7.8 0.00 0.00 0.00 45 1013.5
20260902201424 97 360 4.3 7.8 0.00 0.00 0.00 45 1013.6
20260902201334 97 360 4.3 7.8 0.00 0.00 0.00 45 1013.6
20260902201241 98 360 3.5 7.8 0.00 0.00 0.00 44 1013.6
20260902201122 98 360 2.6 7.8 0.00 0.00 0.00 44 1013.7
20260902201030 98 360 1.7 4.3 0.00 0.00 0.00 44 1013.6
20260902200914 98 360 1.7 5.2 0.00 0.00 0.00 44 1013.7
20260902200816 98 360 1.7 5.2 0.00 0.00 0.00 44 1013.7
20260902200726 98 360 2.6 5.2 0.00 0.00 0.00 44 1013.7
20260902200649 98 360 1.7 5.2 0.00 0.00 0.00 44 1013.7
20260902200515 98 360 1.7 5.2 0.00 0.00 0.00 44 1013.8
20260902200425 98 360 0.9 5.2 0.00 0.00 0.00 44 1013.7
20260902200328 98 360 1.7 5.2 0.00 0.00 0.00 45 1013.7
20260902200258 98 360 1.7 5.2 0.00 0.00 0.00 44 1013.8
20260902200119 98 360 1.7 5.2 0.00 0.00 0.00 45 1013.8
20260902200021 98 360 1.7 5.2 0.00 0.00 0.00 46 1013.9
20260902195931 97 360 0.9 5.2 0.00 0.00 0.00 46 1013.9
20260902195818 97 360 0.9 5.2 0.00 0.00 0.00 45 1013.9
20260902195720 97 360 0.9 5.2 0.00 0.00 0.00 46 1013.9
20260902195622 97 360 1.7 5.2 0.00 0.00 0.00 46 1013.9
20260902195534 97 360 1.7 5.2 0.00 0.00 0.00 46 1014.0